Wetterdaten: Mittwoch, 02.11.2022
Datum Zeit Temp. Aussen Temp. o. S. Temp +5cm Feuchte Auss Luftdruck Regen Sonnenschein Regendauer Solar Windben Empfang
02.11.2022 00:00 13,7 C 12,8 C 9,4 C 77 % 1016,5 hPa 0,0 l/m 0 min 0 min 0 W/m 16,1 km/h (3 Bft) 95,74 %
02.11.2022 00:02 13,7 C 12,8 C 9,4 C 77 % 1016,5 hPa 0,0 l/m 0 min 0 min 0 W/m 3,2 km/h (1 Bft) 15,38 %
02.11.2022 00:04 13,8 C 12,8 C 9,4 C 77 % 1016,3 hPa 0,0 l/m 0 min 0 min 0 W/m 22,5 km/h (4 Bft) 76,19 %
02.11.2022 00:08 13,8 C 13,3 C 9,4 C 77 % 1016,3 hPa 0,0 l/m 0 min 0 min 0 W/m 22,5 km/h (4 Bft) 97,92 %
02.11.2022 00:10 13,8 C 13,3 C 9,4 C 77 % 1016,3 hPa 0,0 l/m 0 min 0 min 0 W/m 25,7 km/h (4 Bft) 93,48 %
02.11.2022 00:12 13,9 C 13,3 C 9,4 C 77 % 1016,2 hPa 0,0 l/m 0 min 0 min 0 W/m 25,7 km/h (4 Bft) 95,74 %
02.11.2022 00:14 13,9 C 13,3 C 9,4 C 77 % 1016,3 hPa 0,0 l/m 0 min 0 min 0 W/m 22,5 km/h (4 Bft) 100,00 %
02.11.2022 00:16 13,9 C 13,3 C 9,4 C 77 % 1016,3 hPa 0,0 l/m 0 min 0 min 0 W/m 25,7 km/h (4 Bft) 100,00 %
02.11.2022 00:18 13,9 C 13,3 C 9,4 C 77 % 1016,4 hPa 0,0 l/m 0 min 0 min 0 W/m 22,5 km/h (4 Bft) 100,00 %
02.11.2022 00:20 13,9 C 13,3 C 9,4 C 76 % 1016,3 hPa 0,0 l/m 0 min 0 min 0 W/m 22,5 km/h (4 Bft) 97,87 %
02.11.2022 00:22 13,9 C 13,3 C 9,4 C 76 % 1016,2 hPa 0,0 l/m 0 min 0 min 0 W/m 22,5 km/h (4 Bft) 100,00 %
02.11.2022 00:24 14,0 C 13,3 C 9,4 C 76 % 1016,2 hPa 0,0 l/m 0 min 0 min 0 W/m 19,3 km/h (3 Bft) 100,00 %
02.11.2022 00:26 14,0 C 13,3 C 9,4 C 76 % 1016,2 hPa 0,0 l/m 0 min 0 min 0 W/m 16,1 km/h (3 Bft) 100,00 %
02.11.2022 00:28 14,0 C 13,3 C 9,4 C 76 % 1016,3 hPa 0,0 l/m 0 min 0 min 0 W/m 25,7 km/h (4 Bft) 97,87 %
02.11.2022 00:30 14,0 C 13,3 C 9,4 C 76 % 1016,3 hPa 0,0 l/m 0 min 0 min 0 W/m 19,3 km/h (3 Bft) 95,74 %
02.11.2022 00:32 14,0 C 13,3 C 9,4 C 76 % 1016,2 hPa 0,0 l/m 0 min 0 min 0 W/m 29,0 km/h (5 Bft) 97,87 %
02.11.2022 00:34 14,0 C 13,3 C 9,4 C 76 % 1016,2 hPa 0,0 l/m 0 min 0 min 0 W/m 29,0 km/h (5 Bft) 97,83 %
02.11.2022 00:36 14,1 C 13,3 C 9,4 C 76 % 1016,2 hPa 0,0 l/m 0 min 0 min 0 W/m 25,7 km/h (4 Bft) 98,31 %
02.11.2022 00:38 14,1 C 13,3 C 9,4 C 76 % 1016,2 hPa 0,0 l/m 0 min 0 min 0 W/m 25,7 km/h (4 Bft) 97,14 %
02.11.2022 00:40 14,1 C 13,3 C 9,4 C 76 % 1016,2 hPa 0,0 l/m 0 min 0 min 0 W/m 22,5 km/h (4 Bft) 97,87 %
02.11.2022 00:42 14,1 C 13,3 C 9,4 C 76 % 1016,2 hPa 0,0 l/m 0 min 0 min 0 W/m 38,6 km/h (5 Bft) 97,87 %
02.11.2022 00:44 14,1 C 13,3 C 9,4 C 76 % 1016,2 hPa 0,0 l/m 0 min 0 min 0 W/m 16,1 km/h (3 Bft) 93,62 %
02.11.2022 00:46 14,1 C 13,3 C 9,4 C 76 % 1016,2 hPa 0,0 l/m 0 min 0 min 0 W/m 35,4 km/h (5 Bft) 97,83 %
02.11.2022 00:48 14,1 C 13,3 C 9,4 C 76 % 1016,1 hPa 0,0 l/m 0 min 0 min 0 W/m 22,5 km/h (4 Bft) 97,87 %
02.11.2022 00:50 14,1 C 13,3 C 9,4 C 76 % 1016,1 hPa 0,0 l/m 0 min 0 min 0 W/m 25,7 km/h (4 Bft) 97,87 %
02.11.2022 00:52 14,1 C 13,3 C 9,4 C 76 % 1016,1 hPa 0,0 l/m 0 min 0 min 0 W/m 32,2 km/h (5 Bft) 95,74 %
02.11.2022 00:54 14,1 C 13,3 C 9,4 C 76 % 1016,2 hPa 0,0 l/m 0 min 0 min 0 W/m 25,7 km/h (4 Bft) 95,74 %
02.11.2022 00:56 14,1 C 13,3 C 9,4 C 76 % 1016,3 hPa 0,0 l/m 0 min 0 min 0 W/m 16,1 km/h (3 Bft) 97,87 %
02.11.2022 00:58 14,1 C 13,3 C 8,9 C 77 % 1016,3 hPa 0,0 l/m 0 min 2 min 0 W/m 22,5 km/h (4 Bft) 97,83 %
02.11.2022 01:00 14,1 C 12,8 C 8,9 C 78 % 1016,3 hPa 0,0 l/m 0 min 2 min 0 W/m 22,5 km/h (4 Bft) 95,74 %
02.11.2022 01:02 14,1 C 12,8 C 8,9 C 78 % 1016,2 hPa 0,0 l/m 0 min 0 min 0 W/m 19,3 km/h (3 Bft) 95,74 %
02.11.2022 01:04 14,1 C 12,8 C 8,9 C 78 % 1016,2 hPa 0,0 l/m 0 min 0 min 0 W/m 19,3 km/h (3 Bft) 97,87 %
02.11.2022 01:06 14,0 C 12,8 C 8,9 C 78 % 1016,2 hPa 0,0 l/m 0 min 0 min 0 W/m 25,7 km/h (4 Bft) 98,28 %
02.11.2022 01:08 14,0 C 12,8 C 8,9 C 78 % 1016,2 hPa 0,0 l/m 0 min 0 min 0 W/m 19,3 km/h (3 Bft) 91,43 %
02.11.2022 01:10 13,9 C 12,8 C 8,9 C 79 % 1016,3 hPa 0,0 l/m 0 min 0 min 0 W/m 19,3 km/h (3 Bft) 97,87 %
02.11.2022 01:12 13,9 C 12,8 C 8,9 C 79 % 1016,2 hPa 0,0 l/m 0 min 0 min 0 W/m 16,1 km/h (3 Bft) 95,74 %
02.11.2022 01:14 13,8 C 12,8 C 8,9 C 79 % 1016,3 hPa 0,0 l/m 0 min 0 min 0 W/m 6,4 km/h (2 Bft) 97,87 %
02.11.2022 01:16 13,8 C 12,8 C 8,9 C 79 % 1016,3 hPa 0,0 l/m 0 min 0 min 0 W/m 22,5 km/h (4 Bft) 97,87 %
02.11.2022 01:18 13,8 C 12,8 C 8,9 C 79 % 1016,2 hPa 0,0 l/m 0 min 0 min 0 W/m 19,3 km/h (3 Bft) 97,87 %
02.11.2022 01:20 13,8 C 12,8 C 9,4 C 79 % 1016,3 hPa 0,0 l/m 0 min 0 min 0 W/m 25,7 km/h (4 Bft) 95,74 %
02.11.2022 01:22 13,8 C 12,8 C 9,4 C 79 % 1016,3 hPa 0,0 l/m 0 min 0 min 0 W/m 35,4 km/h (5 Bft) 93,48 %
02.11.2022 01:24 13,8 C 13,3 C 9,4 C 78 % 1016,3 hPa 0,0 l/m 0 min 0 min 0 W/m 16,1 km/h (3 Bft) 95,74 %
02.11.2022 01:26 13,9 C 13,3 C 9,4 C 78 % 1016,3 hPa 0,0 l/m 0 min 0 min 0 W/m 22,5 km/h (4 Bft) 97,87 %
02.11.2022 01:28 13,9 C 13,3 C 9,4 C 78 % 1016,3 hPa 0,0 l/m 0 min 0 min 0 W/m 25,7 km/h (4 Bft) 97,87 %
02.11.2022 01:30 13,9 C 13,3 C 9,4 C 78 % 1016,3 hPa 0,0 l/m 0 min 0 min 0 W/m 35,4 km/h (5 Bft) 97,87 %
02.11.2022 01:32 13,9 C 13,3 C 9,4 C 78 % 1016,2 hPa 0,0 l/m 0 min 0 min 0 W/m 25,7 km/h (4 Bft) 95,74 %
02.11.2022 01:34 13,9 C 13,3 C 9,4 C 78 % 1016,3 hPa 0,0 l/m 0 min 0 min 0 W/m 22,5 km/h (4 Bft) 97,87 %
02.11.2022 01:36 14,0 C 13,3 C 9,4 C 78 % 1016,3 hPa 0,0 l/m 0 min 0 min 0 W/m 19,3 km/h (3 Bft) 95,74 %
02.11.2022 01:38 13,9 C 13,3 C 9,4 C 78 % 1016,3 hPa 0,0 l/m 0 min 0 min 0 W/m 22,5 km/h (4 Bft) 93,62 %
02.11.2022 01:40 14,0 C 13,3 C 9,4 C 78 % 1016,2 hPa 0,0 l/m 0 min 0 min 0 W/m 22,5 km/h (4 Bft) 95,65 %
02.11.2022 01:42 14,0 C 13,3 C 9,4 C 78 % 1016,2 hPa 0,0 l/m 0 min 0 min 0 W/m 29,0 km/h (5 Bft) 95,74 %
02.11.2022 01:44 14,1 C 13,3 C 9,4 C 78 % 1016,3 hPa 0,0 l/m 0 min 0 min 0 W/m 25,7 km/h (4 Bft) 95,74 %
02.11.2022 01:46 14,1 C 13,3 C 9,4 C 78 % 1016,3 hPa 0,0 l/m 0 min 0 min 0 W/m 25,7 km/h (4 Bft) 93,62 %
02.11.2022 01:48 14,1 C 13,3 C 9,4 C 78 % 1016,2 hPa 0,0 l/m 0 min 0 min 0 W/m 32,2 km/h (5 Bft) 93,62 %
02.11.2022 01:50 14,1 C 13,3 C 9,4 C 78 % 1016,3 hPa 0,0 l/m 0 min 0 min 0 W/m 19,3 km/h (3 Bft) 95,65 %
02.11.2022 01:52 14,1 C 13,3 C 9,4 C 78 % 1016,2 hPa 0,0 l/m 0 min 0 min 0 W/m 22,5 km/h (4 Bft) 93,62 %
02.11.2022 01:54 14,1 C 13,3 C 9,4 C 78 % 1016,2 hPa 0,0 l/m 0 min 0 min 0 W/m 25,7 km/h (4 Bft) 95,74 %
02.11.2022 01:56 14,1 C 13,3 C 9,4 C 78 % 1016,3 hPa 0,0 l/m 0 min 0 min 0 W/m 19,3 km/h (3 Bft) 93,62 %
02.11.2022 01:58 14,1 C 13,3 C 9,4 C 78 % 1016,4 hPa 0,0 l/m 0 min 0 min 0 W/m 19,3 km/h (3 Bft) 95,74 %
02.11.2022 02:00 14,1 C 12,8 C 9,4 C 78 % 1016,3 hPa 0,0 l/m 0 min 0 min 0 W/m 16,1 km/h (3 Bft) 97,87 %
02.11.2022 02:02 14,1 C 12,8 C 9,4 C 78 % 1016,3 hPa 0,0 l/m 0 min 0 min 0 W/m 25,7 km/h (4 Bft) 97,83 %
02.11.2022 02:04 14,0 C 12,8 C 9,4 C 78 % 1016,3 hPa 0,0 l/m 0 min 0 min 0 W/m 29,0 km/h (5 Bft) 95,74 %
02.11.2022 02:06 14,0 C 12,8 C 9,4 C 78 % 1016,3 hPa 0,0 l/m 0 min 0 min 0 W/m 19,3 km/h (3 Bft) 95,74 %
02.11.2022 02:08 13,9 C 12,8 C 9,4 C 78 % 1016,3 hPa 0,0 l/m 0 min 0 min 0 W/m 19,3 km/h (3 Bft) 95,74 %
02.11.2022 02:10 13,9 C 12,8 C 8,9 C 78 % 1016,4 hPa 0,0 l/m 0 min 0 min 0 W/m 29,0 km/h (5 Bft) 97,87 %
02.11.2022 02:12 13,9 C 12,8 C 8,9 C 78 % 1016,3 hPa 0,0 l/m 0 min 0 min 0 W/m 19,3 km/h (3 Bft) 97,87 %
02.11.2022 02:14 13,9 C 12,8 C 8,9 C 78 % 1016,4 hPa 0,0 l/m 0 min 0 min 0 W/m 29,0 km/h (5 Bft) 97,83 %
02.11.2022 02:16 13,8 C 12,8 C 8,9 C 78 % 1016,4 hPa 0,0 l/m 0 min 0 min 0 W/m 16,1 km/h (3 Bft) 97,87 %
02.11.2022 02:18 13,8 C 12,8 C 8,9 C 78 % 1016,3 hPa 0,0 l/m 0 min 0 min 0 W/m 22,5 km/h (4 Bft) 100,00 %
02.11.2022 02:20 13,8 C 12,8 C 8,9 C 78 % 1016,4 hPa 0,0 l/m 0 min 0 min 0 W/m 19,3 km/h (3 Bft) 100,00 %
02.11.2022 02:22 13,8 C 12,8 C 8,9 C 79 % 1016,3 hPa 0,0 l/m 0 min 0 min 0 W/m 19,3 km/h (3 Bft) 97,87 %
02.11.2022 02:24 13,7 C 12,8 C 8,9 C 79 % 1016,4 hPa 0,0 l/m 0 min 0 min 0 W/m 22,5 km/h (4 Bft) 100,00 %
02.11.2022 02:26 13,7 C 12,8 C 8,9 C 79 % 1016,4 hPa 0,0 l/m 0 min 0 min 0 W/m 6,4 km/h (2 Bft) 100,00 %
02.11.2022 02:28 13,7 C 12,8 C 8,9 C 79 % 1016,4 hPa 0,0 l/m 0 min 0 min 0 W/m 19,3 km/h (3 Bft) 53,33 %
02.11.2022 02:30 13,7 C 12,8 C 8,9 C 79 % 1016,3 hPa 0,0 l/m 0 min 0 min 0 W/m 29,0 km/h (5 Bft) 100,00 %
02.11.2022 02:32 13,7 C 12,8 C 8,9 C 79 % 1016,4 hPa 0,0 l/m 0 min 0 min 0 W/m 25,7 km/h (4 Bft) 97,87 %
02.11.2022 02:34 13,7 C 12,8 C 8,9 C 79 % 1016,4 hPa 0,0 l/m 0 min 0 min 0 W/m 41,8 km/h (6 Bft) 97,87 %
02.11.2022 02:36 13,7 C 12,8 C 9,4 C 79 % 1016,4 hPa 0,0 l/m 0 min 0 min 0 W/m 25,7 km/h (4 Bft) 100,00 %
02.11.2022 02:38 13,7 C 12,8 C 9,4 C 79 % 1016,4 hPa 0,0 l/m 0 min 0 min 0 W/m 35,4 km/h (5 Bft) 100,00 %
02.11.2022 02:40 13,7 C 12,8 C 8,9 C 79 % 1016,5 hPa 0,0 l/m 0 min 0 min 0 W/m 16,1 km/h (3 Bft) 97,87 %
02.11.2022 02:42 13,7 C 12,8 C 8,9 C 79 % 1016,5 hPa 0,0 l/m 0 min 0 min 0 W/m 22,5 km/h (4 Bft) 100,00 %
02.11.2022 02:44 13,7 C 12,8 C 8,9 C 79 % 1016,5 hPa 0,0 l/m 0 min 0 min 0 W/m 22,5 km/h (4 Bft) 100,00 %
02.11.2022 02:46 13,7 C 12,8 C 8,9 C 79 % 1016,4 hPa 0,0 l/m 0 min 0 min 0 W/m 22,5 km/h (4 Bft) 97,87 %
02.11.2022 02:48 13,7 C 12,8 C 8,9 C 80 % 1016,5 hPa 0,0 l/m 0 min 0 min 0 W/m 29,0 km/h (5 Bft) 100,00 %
02.11.2022 02:50 13,6 C 12,8 C 8,9 C 79 % 1016,4 hPa 0,0 l/m 0 min 0 min 0 W/m 25,7 km/h (4 Bft) 100,00 %
02.11.2022 02:52 13,6 C 12,8 C 8,9 C 80 % 1016,4 hPa 0,0 l/m 0 min 0 min 0 W/m 22,5 km/h (4 Bft) 95,74 %
02.11.2022 02:54 13,6 C 12,8 C 8,9 C 80 % 1016,4 hPa 0,0 l/m 0 min 0 min 0 W/m 25,7 km/h (4 Bft) 100,00 %
02.11.2022 02:56 13,6 C 12,8 C 8,9 C 80 % 1016,4 hPa 0,0 l/m 0 min 0 min 0 W/m 25,7 km/h (4 Bft) 97,87 %
02.11.2022 02:58 13,6 C 12,8 C 8,9 C 80 % 1016,3 hPa 0,0 l/m 0 min 0 min 0 W/m 22,5 km/h (4 Bft) 97,87 %
02.11.2022 03:00 13,5 C 12,2 C 8,9 C 80 % 1016,4 hPa 0,0 l/m 0 min 0 min 0 W/m 16,1 km/h (3 Bft) 100,00 %
02.11.2022 03:02 13,5 C 12,2 C 8,9 C 80 % 1016,4 hPa 0,0 l/m 0 min 0 min 0 W/m 12,9 km/h (3 Bft) 97,83 %
02.11.2022 03:04 13,5 C 12,2 C 8,9 C 80 % 1016,4 hPa 0,0 l/m 0 min 0 min 0 W/m 19,3 km/h (3 Bft) 95,74 %
02.11.2022 03:06 13,4 C 12,2 C 8,9 C 80 % 1016,4 hPa 0,0 l/m 0 min 0 min 0 W/m 22,5 km/h (4 Bft) 97,87 %
02.11.2022 03:08 13,4 C 12,2 C 8,9 C 80 % 1016,4 hPa 0,0 l/m 0 min 0 min 0 W/m 16,1 km/h (3 Bft) 100,00 %
02.11.2022 03:10 13,4 C 12,2 C 8,9 C 81 % 1016,4 hPa 0,0 l/m 0 min 0 min 0 W/m 16,1 km/h (3 Bft) 97,87 %
02.11.2022 03:12 13,4 C 12,8 C 8,9 C 81 % 1016,4 hPa 0,0 l/m 0 min 0 min 0 W/m 22,5 km/h (4 Bft) 100,00 %
02.11.2022 03:14 13,4 C 12,8 C 8,9 C 81 % 1016,4 hPa 0,0 l/m 0 min 0 min 0 W/m 19,3 km/h (3 Bft) 97,83 %
02.11.2022 03:16 13,4 C 12,8 C 8,9 C 81 % 1016,4 hPa 0,0 l/m 0 min 0 min 0 W/m 19,3 km/h (3 Bft) 95,74 %
02.11.2022 03:18 13,4 C 12,8 C 8,9 C 81 % 1016,4 hPa 0,0 l/m 0 min 0 min 0 W/m 19,3 km/h (3 Bft) 97,87 %
02.11.2022 03:20 13,4 C 12,8 C 8,9 C 81 % 1016,4 hPa 0,0 l/m 0 min 0 min 0 W/m 16,1 km/h (3 Bft) 97,87 %
02.11.2022 03:22 13,4 C 12,8 C 8,9 C 81 % 1016,4 hPa 0,0 l/m 0 min 0 min 0 W/m 22,5 km/h (4 Bft) 97,87 %
02.11.2022 03:24 13,4 C 12,8 C 8,9 C 81 % 1016,3 hPa 0,0 l/m 0 min 0 min 0 W/m 16,1 km/h (3 Bft) 97,87 %
02.11.2022 03:26 13,4 C 12,8 C 8,9 C 81 % 1016,4 hPa 0,0 l/m 0 min 0 min 0 W/m 25,7 km/h (4 Bft) 93,48 %
02.11.2022 03:28 13,4 C 12,8 C 8,9 C 81 % 1016,3 hPa 0,0 l/m 0 min 0 min 0 W/m 25,7 km/h (4 Bft) 97,87 %
02.11.2022 03:30 13,5 C 12,8 C 8,9 C 81 % 1016,4 hPa 0,0 l/m 0 min 0 min 0 W/m 16,1 km/h (3 Bft) 97,87 %
02.11.2022 03:32 13,5 C 12,8 C 8,9 C 81 % 1016,3 hPa 0,0 l/m 0 min 0 min 0 W/m 22,5 km/h (4 Bft) 97,87 %
02.11.2022 03:34 13,5 C 12,8 C 8,9 C 81 % 1016,4 hPa 0,0 l/m 0 min 0 min 0 W/m 12,9 km/h (3 Bft) 95,74 %
02.11.2022 03:36 13,5 C 12,8 C 8,9 C 81 % 1016,3 hPa 0,0 l/m 0 min 0 min 0 W/m 25,7 km/h (4 Bft) 95,74 %
02.11.2022 03:38 13,6 C 12,8 C 8,9 C 81 % 1016,4 hPa 0,0 l/m 0 min 0 min 0 W/m 22,5 km/h (4 Bft) 95,65 %
02.11.2022 03:40 13,6 C 12,8 C 8,9 C 81 % 1016,3 hPa 0,0 l/m 0 min 0 min 0 W/m 25,7 km/h (4 Bft) 93,62 %
02.11.2022 03:42 13,6 C 12,8 C 8,9 C 80 % 1016,4 hPa 0,0 l/m 0 min 0 min 0 W/m 25,7 km/h (4 Bft) 95,74 %
02.11.2022 03:44 13,6 C 12,8 C 8,9 C 80 % 1016,3 hPa 0,0 l/m 0 min 0 min 0 W/m 29,0 km/h (5 Bft) 93,62 %
02.11.2022 03:46 13,6 C 12,8 C 8,9 C 80 % 1016,4 hPa 0,0 l/m 0 min 0 min 0 W/m 22,5 km/h (4 Bft) 95,74 %
02.11.2022 03:48 13,6 C 12,8 C 8,9 C 80 % 1016,5 hPa 0,0 l/m 0 min 0 min 0 W/m 16,1 km/h (3 Bft) 93,62 %
02.11.2022 03:50 13,5 C 12,8 C 8,9 C 80 % 1016,4 hPa 0,0 l/m 0 min 0 min 0 W/m 25,7 km/h (4 Bft) 93,48 %
02.11.2022 03:52 13,5 C 12,8 C 8,9 C 80 % 1016,5 hPa 0,0 l/m 0 min 0 min 0 W/m 22,5 km/h (4 Bft) 95,74 %
02.11.2022 03:54 13,4 C 12,8 C 8,9 C 80 % 1016,5 hPa 0,0 l/m 0 min 0 min 0 W/m 29,0 km/h (5 Bft) 95,74 %
02.11.2022 03:56 13,4 C 12,8 C 8,9 C 80 % 1016,5 hPa 0,0 l/m 0 min 0 min 0 W/m 35,4 km/h (5 Bft) 95,74 %
02.11.2022 03:58 13,4 C 12,8 C 8,9 C 80 % 1016,5 hPa 0,0 l/m 0 min 0 min 0 W/m 22,5 km/h (4 Bft) 95,74 %
02.11.2022 04:00 13,4 C 12,2 C 8,9 C 80 % 1016,5 hPa 0,0 l/m 0 min 0 min 0 W/m 22,5 km/h (4 Bft) 97,87 %
02.11.2022 04:05 13,4 C 12,2 C 8,9 C 80 % 1016,5 hPa 0,0 l/m 0 min 0 min 0 W/m 22,5 km/h (4 Bft) 100,00 %
02.11.2022 04:06 13,4 C 12,2 C 8,9 C 80 % 1016,5 hPa 0,0 l/m 0 min 0 min 0 W/m 12,9 km/h (3 Bft) 95,65 %
02.11.2022 04:08 13,3 C 12,2 C 8,9 C 80 % 1016,6 hPa 0,0 l/m 0 min 0 min 0 W/m 29,0 km/h (5 Bft) 97,87 %
02.11.2022 04:10 13,3 C 12,2 C 8,9 C 80 % 1016,6 hPa 0,0 l/m 0 min 0 min 0 W/m 19,3 km/h (3 Bft) 97,87 %
02.11.2022 04:12 13,3 C 12,2 C 8,9 C 80 % 1016,6 hPa 0,0 l/m 0 min 0 min 0 W/m 32,2 km/h (5 Bft) 97,87 %
02.11.2022 04:14 13,3 C 12,2 C 8,9 C 80 % 1016,7 hPa 0,0 l/m 0 min 0 min 0 W/m 32,2 km/h (5 Bft) 97,83 %
02.11.2022 04:16 13,3 C 12,2 C 8,9 C 80 % 1016,6 hPa 0,0 l/m 0 min 0 min 0 W/m 19,3 km/h (3 Bft) 95,74 %
02.11.2022 04:18 13,2 C 12,2 C 8,9 C 80 % 1016,6 hPa 0,0 l/m 0 min 0 min 0 W/m 19,3 km/h (3 Bft) 97,87 %
02.11.2022 04:20 13,2 C 12,2 C 8,9 C 81 % 1016,7 hPa 0,0 l/m 0 min 0 min 0 W/m 35,4 km/h (5 Bft) 97,87 %
02.11.2022 04:22 13,2 C 12,2 C 8,9 C 81 % 1016,7 hPa 0,0 l/m 0 min 0 min 0 W/m 22,5 km/h (4 Bft) 97,87 %
02.11.2022 04:24 13,2 C 12,2 C 8,9 C 81 % 1016,7 hPa 0,0 l/m 0 min 0 min 0 W/m 22,5 km/h (4 Bft) 97,87 %
02.11.2022 04:26 13,2 C 12,2 C 8,9 C 81 % 1016,7 hPa 0,0 l/m 0 min 0 min 0 W/m 16,1 km/h (3 Bft) 97,83 %
02.11.2022 04:28 13,1 C 12,2 C 8,3 C 81 % 1016,8 hPa 0,0 l/m 0 min 0 min 0 W/m 29,0 km/h (5 Bft) 97,87 %
02.11.2022 04:30 13,1 C 12,2 C 8,9 C 81 % 1016,8 hPa 0,0 l/m 0 min 0 min 0 W/m 25,7 km/h (4 Bft) 97,87 %
02.11.2022 04:32 13,1 C 12,2 C 8,9 C 81 % 1016,8 hPa 0,0 l/m 0 min 0 min 0 W/m 19,3 km/h (3 Bft) 95,74 %
02.11.2022 04:34 13,1 C 12,2 C 8,3 C 81 % 1016,8 hPa 0,0 l/m 0 min 0 min 0 W/m 22,5 km/h (4 Bft) 95,74 %
02.11.2022 04:36 13,1 C 12,2 C 8,3 C 81 % 1016,9 hPa 0,0 l/m 0 min 0 min 0 W/m 22,5 km/h (4 Bft) 97,87 %
02.11.2022 04:38 13,1 C 12,2 C 8,3 C 81 % 1016,9 hPa 0,0 l/m 0 min 0 min 0 W/m 16,1 km/h (3 Bft) 97,83 %
02.11.2022 04:40 13,1 C 12,2 C 8,3 C 81 % 1017,0 hPa 0,0 l/m 0 min 0 min 0 W/m 25,7 km/h (4 Bft) 97,87 %
02.11.2022 04:42 13,0 C 12,2 C 8,3 C 81 % 1017,0 hPa 0,0 l/m 0 min 0 min 0 W/m 19,3 km/h (3 Bft) 97,87 %
02.11.2022 04:44 13,0 C 12,2 C 8,3 C 81 % 1016,9 hPa 0,0 l/m 0 min 0 min 0 W/m 19,3 km/h (3 Bft) 97,87 %
02.11.2022 04:46 12,9 C 11,7 C 8,3 C 81 % 1017,0 hPa 0,0 l/m 0 min 0 min 0 W/m 19,3 km/h (3 Bft) 97,87 %
02.11.2022 04:48 12,9 C 11,7 C 8,3 C 81 % 1017,0 hPa 0,0 l/m 0 min 0 min 0 W/m 19,3 km/h (3 Bft) 97,87 %
02.11.2022 04:50 12,9 C 11,7 C 8,3 C 82 % 1017,0 hPa 0,0 l/m 0 min 0 min 0 W/m 12,9 km/h (3 Bft) 97,83 %
02.11.2022 04:52 12,9 C 11,7 C 8,3 C 82 % 1017,0 hPa 0,0 l/m 0 min 0 min 0 W/m 16,1 km/h (3 Bft) 100,00 %
02.11.2022 04:54 12,8 C 11,7 C 8,3 C 82 % 1017,0 hPa 0,0 l/m 0 min 0 min 0 W/m 22,5 km/h (4 Bft) 100,00 %
02.11.2022 04:56 12,8 C 11,7 C 8,3 C 82 % 1017,1 hPa 0,0 l/m 0 min 0 min 0 W/m 25,7 km/h (4 Bft) 95,74 %
02.11.2022 04:58 12,8 C 11,7 C 8,3 C 82 % 1017,1 hPa 0,0 l/m 0 min 0 min 0 W/m 19,3 km/h (3 Bft) 100,00 %
02.11.2022 05:00 12,8 C 11,7 C 8,3 C 82 % 1017,1 hPa 0,0 l/m 0 min 0 min 0 W/m 29,0 km/h (5 Bft) 97,87 %
02.11.2022 05:02 12,8 C 11,7 C 8,3 C 82 % 1017,2 hPa 0,0 l/m 0 min 0 min 0 W/m 16,1 km/h (3 Bft) 100,00 %
02.11.2022 05:04 12,7 C 11,7 C 8,3 C 82 % 1017,1 hPa 0,0 l/m 0 min 0 min 0 W/m 22,5 km/h (4 Bft) 100,00 %
02.11.2022 05:06 12,7 C 11,7 C 8,3 C 82 % 1017,2 hPa 0,0 l/m 0 min 0 min 0 W/m 19,3 km/h (3 Bft) 97,87 %
02.11.2022 05:08 12,7 C 11,7 C 8,3 C 82 % 1017,3 hPa 0,0 l/m 0 min 0 min 0 W/m 16,1 km/h (3 Bft) 100,00 %
02.11.2022 05:10 12,7 C 11,7 C 8,3 C 82 % 1017,2 hPa 0,0 l/m 0 min 0 min 0 W/m 19,3 km/h (3 Bft) 100,00 %
02.11.2022 05:12 12,6 C 11,7 C 8,3 C 82 % 1017,3 hPa 0,0 l/m 0 min 0 min 0 W/m 22,5 km/h (4 Bft) 100,00 %
02.11.2022 05:14 12,6 C 11,7 C 8,3 C 82 % 1017,2 hPa 0,0 l/m 0 min 0 min 0 W/m 22,5 km/h (4 Bft) 100,00 %
02.11.2022 05:16 12,7 C 11,7 C 8,3 C 82 % 1017,2 hPa 0,0 l/m 0 min 0 min 0 W/m 29,0 km/h (5 Bft) 100,00 %
02.11.2022 05:18 12,7 C 11,7 C 8,3 C 82 % 1017,2 hPa 0,0 l/m 0 min 0 min 0 W/m 48,3 km/h (6 Bft) 97,87 %
02.11.2022 05:20 12,7 C 12,2 C 8,3 C 81 % 1017,3 hPa 0,0 l/m 0 min 0 min 0 W/m 29,0 km/h (5 Bft) 97,87 %
02.11.2022 05:22 12,7 C 11,7 C 8,3 C 81 % 1017,3 hPa 0,0 l/m 0 min 0 min 0 W/m 22,5 km/h (4 Bft) 97,87 %
02.11.2022 05:24 12,7 C 12,2 C 8,3 C 81 % 1017,4 hPa 0,0 l/m 0 min 0 min 0 W/m 29,0 km/h (5 Bft) 100,00 %
02.11.2022 05:26 12,8 C 12,2 C 8,3 C 81 % 1017,5 hPa 0,0 l/m 0 min 0 min 0 W/m 35,4 km/h (5 Bft) 95,65 %
02.11.2022 05:28 12,8 C 12,2 C 8,3 C 81 % 1017,5 hPa 0,0 l/m 0 min 0 min 0 W/m 32,2 km/h (5 Bft) 97,87 %
02.11.2022 05:30 12,8 C 11,7 C 8,3 C 81 % 1017,5 hPa 0,0 l/m 0 min 0 min 0 W/m 25,7 km/h (4 Bft) 97,87 %
02.11.2022 05:32 12,8 C 11,7 C 8,3 C 81 % 1017,6 hPa 0,0 l/m 0 min 0 min 0 W/m 25,7 km/h (4 Bft) 97,87 %
02.11.2022 05:34 12,8 C 11,7 C 8,3 C 81 % 1017,6 hPa 0,0 l/m 0 min 0 min 0 W/m 25,7 km/h (4 Bft) 97,87 %
02.11.2022 05:36 12,8 C 11,7 C 8,3 C 81 % 1017,6 hPa 0,0 l/m 0 min 0 min 0 W/m 19,3 km/h (3 Bft) 97,83 %
02.11.2022 05:38 12,7 C 11,7 C 8,3 C 81 % 1017,6 hPa 0,0 l/m 0 min 0 min 0 W/m 12,9 km/h (3 Bft) 97,87 %
02.11.2022 05:40 12,7 C 11,7 C 8,3 C 81 % 1017,6 hPa 0,0 l/m 0 min 0 min 0 W/m 38,6 km/h (5 Bft) 97,87 %
02.11.2022 05:42 12,7 C 11,7 C 8,3 C 81 % 1017,7 hPa 0,0 l/m 0 min 0 min 0 W/m 25,7 km/h (4 Bft) 95,74 %
02.11.2022 05:44 12,7 C 11,7 C 8,3 C 81 % 1017,6 hPa 0,0 l/m 0 min 0 min 0 W/m 29,0 km/h (5 Bft) 95,74 %
02.11.2022 05:46 12,7 C 11,7 C 8,3 C 81 % 1017,7 hPa 0,0 l/m 0 min 0 min 0 W/m 25,7 km/h (4 Bft) 95,74 %
02.11.2022 05:48 12,7 C 11,7 C 8,3 C 81 % 1017,7 hPa 0,0 l/m 0 min 0 min 0 W/m 22,5 km/h (4 Bft) 95,65 %
02.11.2022 05:50 12,6 C 11,7 C 8,3 C 81 % 1017,9 hPa 0,0 l/m 0 min 0 min 0 W/m 29,0 km/h (5 Bft) 97,87 %
02.11.2022 05:52 12,6 C 11,7 C 8,3 C 81 % 1017,7 hPa 0,0 l/m 0 min 0 min 0 W/m 25,7 km/h (4 Bft) 95,74 %
02.11.2022 05:54 12,6 C 11,7 C 8,3 C 81 % 1017,7 hPa 0,0 l/m 0 min 0 min 0 W/m 29,0 km/h (5 Bft) 97,87 %
02.11.2022 05:56 12,6 C 11,7 C 8,3 C 81 % 1017,7 hPa 0,0 l/m 0 min 0 min 0 W/m 19,3 km/h (3 Bft) 93,62 %
02.11.2022 05:58 12,6 C 11,7 C 8,3 C 81 % 1017,8 hPa 0,0 l/m 0 min 0 min 0 W/m 35,4 km/h (5 Bft) 97,87 %
02.11.2022 06:00 12,6 C 11,7 C 8,3 C 81 % 1017,8 hPa 0,0 l/m 0 min 0 min 0 W/m 22,5 km/h (4 Bft) 97,83 %
02.11.2022 06:02 12,6 C 11,7 C 8,3 C 81 % 1017,8 hPa 0,0 l/m 0 min 0 min 0 W/m 22,5 km/h (4 Bft) 95,74 %
02.11.2022 06:04 12,6 C 11,7 C 8,3 C 81 % 1018,0 hPa 0,0 l/m 0 min 0 min 0 W/m 25,7 km/h (4 Bft) 97,87 %
02.11.2022 06:08 12,6 C 11,7 C 8,3 C 81 % 1018,1 hPa 0,0 l/m 0 min 0 min 0 W/m 22,5 km/h (4 Bft) 97,87 %
02.11.2022 06:10 12,6 C 11,7 C 8,3 C 81 % 1018,0 hPa 0,0 l/m 0 min 0 min 0 W/m 32,2 km/h (5 Bft) 95,74 %
02.11.2022 06:12 12,6 C 11,7 C 8,3 C 81 % 1018,0 hPa 0,0 l/m 0 min 0 min 0 W/m 22,5 km/h (4 Bft) 95,65 %
02.11.2022 06:14 12,6 C 11,7 C 8,3 C 81 % 1018,1 hPa 0,0 l/m 0 min 0 min 0 W/m 22,5 km/h (4 Bft) 95,74 %
02.11.2022 06:16 12,6 C 11,7 C 8,3 C 81 % 1018,1 hPa 0,0 l/m 0 min 0 min 0 W/m 45,1 km/h (6 Bft) 97,87 %
02.11.2022 06:18 12,6 C 11,7 C 8,3 C 81 % 1018,0 hPa 0,0 l/m 0 min 0 min 0 W/m 19,3 km/h (3 Bft) 97,87 %
02.11.2022 06:20 12,6 C 11,7 C 8,3 C 81 % 1018,1 hPa 0,0 l/m 0 min 0 min 0 W/m 22,5 km/h (4 Bft) 97,87 %
02.11.2022 06:22 12,6 C 11,7 C 8,3 C 81 % 1018,3 hPa 0,0 l/m 0 min 0 min 0 W/m 22,5 km/h (4 Bft) 97,87 %
02.11.2022 06:24 12,6 C 11,7 C 7,8 C 81 % 1018,1 hPa 0,0 l/m 0 min 0 min 0 W/m 16,1 km/h (3 Bft) 97,83 %
02.11.2022 06:26 12,5 C 11,7 C 7,8 C 81 % 1018,1 hPa 0,0 l/m 0 min 0 min 0 W/m 19,3 km/h (3 Bft) 95,74 %
02.11.2022 06:28 12,4 C 11,7 C 7,8 C 81 % 1018,1 hPa 0,0 l/m 0 min 0 min 0 W/m 32,2 km/h (5 Bft) 97,87 %
02.11.2022 06:30 12,4 C 11,7 C 7,8 C 81 % 1018,0 hPa 0,0 l/m 0 min 0 min 0 W/m 16,1 km/h (3 Bft) 97,87 %
02.11.2022 06:32 12,4 C 11,7 C 7,8 C 81 % 1018,0 hPa 0,0 l/m 0 min 0 min 0 W/m 16,1 km/h (3 Bft) 97,87 %
02.11.2022 06:34 12,4 C 11,7 C 7,8 C 81 % 1018,2 hPa 0,0 l/m 0 min 0 min 0 W/m 29,0 km/h (5 Bft) 95,74 %
02.11.2022 06:36 12,4 C 11,7 C 7,8 C 81 % 1018,2 hPa 0,0 l/m 0 min 0 min 0 W/m 22,5 km/h (4 Bft) 97,87 %
02.11.2022 06:38 12,3 C 11,7 C 7,8 C 81 % 1018,2 hPa 0,0 l/m 0 min 0 min 0 W/m 16,1 km/h (3 Bft) 97,83 %
02.11.2022 06:40 12,3 C 11,7 C 7,8 C 81 % 1018,2 hPa 0,0 l/m 0 min 0 min 0 W/m 19,3 km/h (3 Bft) 97,87 %
02.11.2022 06:42 12,3 C 11,1 C 7,8 C 82 % 1018,2 hPa 0,0 l/m 0 min 0 min 0 W/m 22,5 km/h (4 Bft) 100,00 %
02.11.2022 06:44 12,3 C 11,1 C 7,8 C 82 % 1018,2 hPa 0,0 l/m 0 min 0 min 0 W/m 12,9 km/h (3 Bft) 100,00 %
02.11.2022 06:46 12,2 C 11,1 C 7,8 C 82 % 1018,2 hPa 0,0 l/m 0 min 0 min 0 W/m 19,3 km/h (3 Bft) 95,74 %
02.11.2022 06:48 12,2 C 11,1 C 7,8 C 82 % 1018,2 hPa 0,0 l/m 0 min 0 min 0 W/m 12,9 km/h (3 Bft) 100,00 %
02.11.2022 06:50 12,2 C 11,1 C 7,8 C 82 % 1018,3 hPa 0,0 l/m 0 min 0 min 0 W/m 16,1 km/h (3 Bft) 100,00 %
02.11.2022 06:52 12,1 C 11,1 C 7,8 C 82 % 1018,4 hPa 0,0 l/m 0 min 0 min 0 W/m 29,0 km/h (5 Bft) 100,00 %
02.11.2022 06:54 12,1 C 11,1 C 7,8 C 82 % 1018,3 hPa 0,0 l/m 0 min 0 min 0 W/m 22,5 km/h (4 Bft) 100,00 %
02.11.2022 06:56 12,1 C 11,1 C 7,8 C 82 % 1018,4 hPa 0,0 l/m 0 min 0 min 0 W/m 19,3 km/h (3 Bft) 100,00 %
02.11.2022 06:58 12,1 C 11,1 C 7,8 C 82 % 1018,4 hPa 0,0 l/m 0 min 0 min 0 W/m 12,9 km/h (3 Bft) 97,87 %
02.11.2022 07:00 12,1 C 11,1 C 7,8 C 82 % 1018,4 hPa 0,0 l/m 0 min 0 min 0 W/m 19,3 km/h (3 Bft) 97,83 %
02.11.2022 07:02 12,1 C 11,1 C 7,8 C 82 % 1018,4 hPa 0,0 l/m 0 min 0 min 0 W/m 19,3 km/h (3 Bft) 97,87 %
02.11.2022 07:04 12,1 C 11,1 C 7,8 C 82 % 1018,4 hPa 0,0 l/m 0 min 0 min 0 W/m 22,5 km/h (4 Bft) 97,87 %
02.11.2022 07:06 12,0 C 11,1 C 7,8 C 82 % 1018,5 hPa 0,0 l/m 0 min 0 min 0 W/m 19,3 km/h (3 Bft) 95,74 %
02.11.2022 07:08 12,0 C 11,1 C 7,8 C 82 % 1018,5 hPa 0,0 l/m 0 min 0 min 0 W/m 22,5 km/h (4 Bft) 95,74 %
02.11.2022 07:10 12,0 C 11,1 C 7,8 C 82 % 1018,5 hPa 0,0 l/m 0 min 0 min 0 W/m 22,5 km/h (4 Bft) 97,87 %
02.11.2022 07:12 12,0 C 11,1 C 7,8 C 82 % 1018,6 hPa 0,0 l/m 0 min 0 min 0 W/m 25,7 km/h (4 Bft) 93,48 %
02.11.2022 07:14 12,0 C 11,1 C 7,8 C 82 % 1018,6 hPa 0,0 l/m 0 min 0 min 0 W/m 12,9 km/h (3 Bft) 95,74 %
02.11.2022 07:16 12,0 C 11,1 C 7,8 C 82 % 1018,7 hPa 0,0 l/m 0 min 0 min 0 W/m 16,1 km/h (3 Bft) 97,87 %
02.11.2022 07:18 11,9 C 11,1 C 7,8 C 82 % 1018,8 hPa 0,0 l/m 0 min 0 min 0 W/m 16,1 km/h (3 Bft) 95,74 %
02.11.2022 07:20 11,9 C 11,1 C 7,8 C 82 % 1018,8 hPa 0,0 l/m 0 min 0 min 0 W/m 19,3 km/h (3 Bft) 93,62 %
02.11.2022 07:22 11,9 C 11,1 C 7,8 C 82 % 1018,9 hPa 0,0 l/m 0 min 0 min 0 W/m 25,7 km/h (4 Bft) 93,62 %
02.11.2022 07:24 11,9 C 11,1 C 7,8 C 82 % 1018,8 hPa 0,0 l/m 0 min 0 min 0 W/m 32,2 km/h (5 Bft) 95,65 %
02.11.2022 07:26 11,9 C 11,1 C 7,8 C 82 % 1018,9 hPa 0,0 l/m 0 min 0 min 0 W/m 19,3 km/h (3 Bft) 93,62 %
02.11.2022 07:28 11,9 C 11,1 C 7,8 C 82 % 1019,0 hPa 0,0 l/m 0 min 0 min 0 W/m 16,1 km/h (3 Bft) 95,74 %
02.11.2022 07:30 11,9 C 11,1 C 7,8 C 82 % 1019,0 hPa 0,0 l/m 0 min 0 min 0 W/m 16,1 km/h (3 Bft) 93,62 %
02.11.2022 07:32 11,9 C 11,1 C 7,8 C 82 % 1019,0 hPa 0,0 l/m 0 min 0 min 0 W/m 16,1 km/h (3 Bft) 95,74 %
02.11.2022 07:34 11,9 C 11,1 C 7,8 C 82 % 1019,1 hPa 0,0 l/m 0 min 0 min 0 W/m 9,7 km/h (2 Bft) 37,50 %
02.11.2022 07:36 11,9 C 11,1 C 7,8 C 82 % 1019,1 hPa 0,0 l/m 0 min 0 min 5 W/m 12,9 km/h (3 Bft) 95,65 %
02.11.2022 07:38 11,9 C 11,1 C 7,8 C 82 % 1019,1 hPa 0,0 l/m 0 min 0 min 5 W/m 19,3 km/h (3 Bft) 95,74 %
02.11.2022 07:40 11,9 C 11,1 C 7,8 C 82 % 1019,2 hPa 0,0 l/m 0 min 0 min 5 W/m 19,3 km/h (3 Bft) 93,62 %
02.11.2022 07:42 12,0 C 11,1 C 7,8 C 82 % 1019,2 hPa 0,0 l/m 0 min 0 min 7 W/m 25,7 km/h (4 Bft) 95,74 %
02.11.2022 07:44 12,0 C 11,1 C 7,8 C 82 % 1019,2 hPa 0,0 l/m 0 min 0 min 7 W/m 19,3 km/h (3 Bft) 93,62 %
02.11.2022 07:46 12,1 C 11,1 C 7,8 C 82 % 1019,3 hPa 0,0 l/m 0 min 0 min 9 W/m 19,3 km/h (3 Bft) 95,74 %
02.11.2022 07:48 12,1 C 11,7 C 7,8 C 82 % 1019,3 hPa 0,0 l/m 0 min 0 min 9 W/m 16,1 km/h (3 Bft) 97,83 %
02.11.2022 07:50 12,1 C 11,7 C 7,8 C 82 % 1019,4 hPa 0,0 l/m 0 min 0 min 11 W/m 19,3 km/h (3 Bft) 97,87 %
02.11.2022 07:52 12,1 C 11,7 C 7,8 C 82 % 1019,4 hPa 0,0 l/m 0 min 0 min 13 W/m 16,1 km/h (3 Bft) 100,00 %
02.11.2022 07:54 12,1 C 11,7 C 7,8 C 82 % 1019,4 hPa 0,0 l/m 0 min 0 min 16 W/m 16,1 km/h (3 Bft) 97,87 %
02.11.2022 07:56 12,1 C 11,7 C 7,8 C 82 % 1019,5 hPa 0,0 l/m 0 min 0 min 17 W/m 16,1 km/h (3 Bft) 97,87 %
02.11.2022 07:58 12,1 C 11,7 C 7,8 C 82 % 1019,6 hPa 0,0 l/m 0 min 0 min 20 W/m 25,7 km/h (4 Bft) 97,87 %
02.11.2022 08:00 12,1 C 11,7 C 7,8 C 82 % 1019,6 hPa 0,0 l/m 0 min 0 min 20 W/m 29,0 km/h (5 Bft) 100,00 %
02.11.2022 08:02 12,2 C 11,7 C 7,8 C 82 % 1019,7 hPa 0,0 l/m 0 min 0 min 22 W/m 16,1 km/h (3 Bft) 100,00 %
02.11.2022 08:04 12,2 C 11,7 C 7,8 C 82 % 1019,7 hPa 0,0 l/m 0 min 0 min 24 W/m 22,5 km/h (4 Bft) 97,87 %
02.11.2022 08:06 12,1 C 11,7 C 7,8 C 82 % 1019,8 hPa 0,0 l/m 0 min 0 min 27 W/m 16,1 km/h (3 Bft) 100,00 %
02.11.2022 08:08 12,2 C 11,7 C 7,8 C 82 % 1019,8 hPa 0,0 l/m 0 min 0 min 30 W/m 22,5 km/h (4 Bft) 100,00 %
02.11.2022 08:10 12,1 C 11,7 C 7,8 C 82 % 1019,8 hPa 0,0 l/m 0 min 0 min 28 W/m 22,5 km/h (4 Bft) 100,00 %
02.11.2022 08:12 12,1 C 11,7 C 7,8 C 82 % 1019,9 hPa 0,0 l/m 0 min 0 min 30 W/m 22,5 km/h (4 Bft) 100,00 %
02.11.2022 08:14 12,1 C 11,7 C 7,8 C 82 % 1020,0 hPa 0,0 l/m 0 min 0 min 32 W/m 9,7 km/h (2 Bft) 100,00 %
02.11.2022 08:16 12,1 C 11,7 C 7,8 C 82 % 1020,0 hPa 0,0 l/m 0 min 0 min 33 W/m 19,3 km/h (3 Bft) 100,00 %
02.11.2022 08:18 12,1 C 11,7 C 7,8 C 82 % 1020,0 hPa 0,0 l/m 0 min 0 min 38 W/m 16,1 km/h (3 Bft) 97,87 %
02.11.2022 08:20 12,1 C 11,7 C 7,8 C 82 % 1020,1 hPa 0,0 l/m 0 min 0 min 37 W/m 32,2 km/h (5 Bft) 97,87 %
02.11.2022 08:22 12,1 C 11,7 C 7,8 C 82 % 1020,1 hPa 0,0 l/m 0 min 0 min 29 W/m 19,3 km/h (3 Bft) 100,00 %
02.11.2022 08:24 12,1 C 11,7 C 7,8 C 81 % 1020,1 hPa 0,0 l/m 0 min 0 min 39 W/m 19,3 km/h (3 Bft) 97,83 %
02.11.2022 08:26 12,1 C 11,7 C 7,8 C 82 % 1020,1 hPa 0,0 l/m 0 min 0 min 40 W/m 32,2 km/h (5 Bft) 100,00 %
02.11.2022 08:28 12,1 C 11,7 C 7,8 C 82 % 1020,3 hPa 0,0 l/m 0 min 0 min 44 W/m 12,9 km/h (3 Bft) 97,87 %
02.11.2022 08:30 12,1 C 11,7 C 7,8 C 82 % 1020,3 hPa 0,0 l/m 0 min 0 min 45 W/m 25,7 km/h (4 Bft) 100,00 %
02.11.2022 08:32 12,1 C 11,7 C 7,8 C 82 % 1020,3 hPa 0,0 l/m 0 min 0 min 37 W/m 12,9 km/h (3 Bft) 97,87 %
02.11.2022 08:34 12,1 C 11,7 C 7,8 C 82 % 1020,4 hPa 0,0 l/m 0 min 0 min 37 W/m 19,3 km/h (3 Bft) 97,87 %
02.11.2022 08:36 12,1 C 11,7 C 7,8 C 82 % 1020,5 hPa 0,0 l/m 0 min 0 min 33 W/m 16,1 km/h (3 Bft) 95,65 %
02.11.2022 08:38 12,1 C 11,7 C 7,8 C 82 % 1020,4 hPa 0,0 l/m 0 min 0 min 31 W/m 19,3 km/h (3 Bft) 97,87 %
02.11.2022 08:40 12,1 C 11,7 C 7,8 C 82 % 1020,5 hPa 0,0 l/m 0 min 0 min 34 W/m 19,3 km/h (3 Bft) 97,87 %
02.11.2022 08:42 12,1 C 11,7 C 7,8 C 82 % 1020,5 hPa 0,0 l/m 0 min 0 min 39 W/m 12,9 km/h (3 Bft) 97,87 %
02.11.2022 08:44 12,2 C 11,7 C 7,8 C 82 % 1020,6 hPa 0,0 l/m 0 min 0 min 34 W/m 16,1 km/h (3 Bft) 95,74 %
02.11.2022 08:46 12,1 C 11,7 C 7,8 C 82 % 1020,6 hPa 0,0 l/m 0 min 0 min 33 W/m 6,4 km/h (2 Bft) 97,87 %
02.11.2022 08:48 12,2 C 11,7 C 7,8 C 82 % 1020,7 hPa 0,0 l/m 0 min 0 min 33 W/m 12,9 km/h (3 Bft) 95,65 %
02.11.2022 08:50 12,2 C 11,7 C 7,8 C 82 % 1020,8 hPa 0,0 l/m 0 min 0 min 37 W/m 16,1 km/h (3 Bft) 91,49 %
02.11.2022 08:52 12,2 C 11,7 C 7,8 C 82 % 1020,7 hPa 0,0 l/m 0 min 0 min 45 W/m 22,5 km/h (4 Bft) 97,87 %
02.11.2022 08:54 12,2 C 11,7 C 7,8 C 82 % 1020,8 hPa 0,0 l/m 0 min 0 min 44 W/m 12,9 km/h (3 Bft) 95,74 %
02.11.2022 08:56 12,2 C 11,7 C 7,8 C 81 % 1020,8 hPa 0,0 l/m 0 min 0 min 33 W/m 16,1 km/h (3 Bft) 95,74 %
02.11.2022 08:58 12,2 C 11,7 C 7,8 C 81 % 1020,8 hPa 0,0 l/m 0 min 0 min 34 W/m 25,7 km/h (4 Bft) 97,87 %
02.11.2022 09:00 12,2 C 11,7 C 7,8 C 81 % 1020,8 hPa 0,0 l/m 0 min 0 min 38 W/m 25,7 km/h (4 Bft) 95,65 %
02.11.2022 09:02 12,2 C 11,7 C 7,8 C 81 % 1020,9 hPa 0,0 l/m 0 min 0 min 37 W/m 12,9 km/h (3 Bft) 93,62 %
02.11.2022 09:04 12,2 C 11,7 C 7,8 C 81 % 1021,0 hPa 0,0 l/m 0 min 0 min 37 W/m 16,1 km/h (3 Bft) 91,49 %
02.11.2022 09:06 12,3 C 11,7 C 7,8 C 81 % 1021,0 hPa 0,0 l/m 0 min 0 min 39 W/m 16,1 km/h (3 Bft) 97,87 %
02.11.2022 09:08 12,3 C 11,7 C 7,8 C 81 % 1021,0 hPa 0,0 l/m 0 min 0 min 39 W/m 25,7 km/h (4 Bft) 97,87 %
02.11.2022 09:10 12,3 C 11,7 C 7,8 C 81 % 1021,0 hPa 0,0 l/m 0 min 0 min 40 W/m 16,1 km/h (3 Bft) 97,87 %
02.11.2022 09:12 12,3 C 11,7 C 7,8 C 81 % 1021,1 hPa 0,0 l/m 0 min 0 min 41 W/m 19,3 km/h (3 Bft) 97,83 %
02.11.2022 09:14 12,3 C 11,7 C 8,3 C 81 % 1021,1 hPa 0,0 l/m 0 min 0 min 44 W/m 22,5 km/h (4 Bft) 93,62 %
02.11.2022 09:16 12,3 C 11,7 C 8,3 C 81 % 1021,1 hPa 0,0 l/m 0 min 0 min 48 W/m 16,1 km/h (3 Bft) 78,72 %
02.11.2022 09:18 12,4 C 12,2 C 8,3 C 81 % 1021,0 hPa 0,0 l/m 0 min 0 min 48 W/m 16,1 km/h (3 Bft) 91,49 %
02.11.2022 09:20 12,4 C 12,2 C 8,3 C 81 % 1021,1 hPa 0,0 l/m 0 min 0 min 54 W/m 22,5 km/h (4 Bft) 80,85 %
02.11.2022 09:22 12,4 C 12,2 C 8,3 C 81 % 1021,1 hPa 0,0 l/m 0 min 0 min 49 W/m 12,9 km/h (3 Bft) 86,96 %
02.11.2022 09:24 12,5 C 12,2 C 8,3 C 81 % 1021,1 hPa 0,0 l/m 0 min 0 min 50 W/m 19,3 km/h (3 Bft) 95,74 %
02.11.2022 09:26 12,5 C 12,2 C 8,3 C 81 % 1021,0 hPa 0,0 l/m 0 min 0 min 50 W/m 16,1 km/h (3 Bft) 95,74 %
02.11.2022 09:28 12,6 C 12,2 C 8,3 C 81 % 1021,1 hPa 0,0 l/m 0 min 0 min 60 W/m 12,9 km/h (3 Bft) 95,74 %
02.11.2022 09:30 12,6 C 12,2 C 8,3 C 81 % 1021,1 hPa 0,0 l/m 0 min 0 min 51 W/m 16,1 km/h (3 Bft) 93,62 %
02.11.2022 09:32 12,6 C 12,2 C 8,3 C 81 % 1021,1 hPa 0,0 l/m 2 min 0 min 174 W/m 9,7 km/h (2 Bft) 89,36 %
02.11.2022 09:34 12,6 C 12,2 C 8,3 C 81 % 1021,1 hPa 0,0 l/m 2 min 0 min 142 W/m 16,1 km/h (3 Bft) 76,60 %
02.11.2022 09:36 12,6 C 12,2 C 8,3 C 81 % 1021,1 hPa 0,0 l/m 2 min 0 min 156 W/m 9,7 km/h (2 Bft) 97,83 %
02.11.2022 09:38 12,6 C 12,8 C 8,3 C 81 % 1021,1 hPa 0,0 l/m 0 min 0 min 127 W/m 16,1 km/h (3 Bft) 93,62 %
02.11.2022 09:40 12,6 C 12,2 C 8,3 C 81 % 1021,2 hPa 0,0 l/m 0 min 0 min 110 W/m 19,3 km/h (3 Bft) 97,87 %
02.11.2022 09:42 12,7 C 12,8 C 8,3 C 80 % 1021,2 hPa 0,0 l/m 0 min 0 min 84 W/m 16,1 km/h (3 Bft) 82,98 %
02.11.2022 09:44 12,7 C 12,8 C 8,3 C 81 % 1021,2 hPa 0,0 l/m 2 min 0 min 209 W/m 22,5 km/h (4 Bft) 72,34 %
02.11.2022 09:46 12,7 C 12,8 C 8,3 C 80 % 1021,3 hPa 0,0 l/m 2 min 0 min 232 W/m 22,5 km/h (4 Bft) 71,74 %
02.11.2022 09:48 12,8 C 13,3 C 8,3 C 80 % 1021,3 hPa 0,0 l/m 2 min 0 min 246 W/m 16,1 km/h (3 Bft) 70,21 %
02.11.2022 09:50 12,8 C 13,3 C 8,9 C 80 % 1021,3 hPa 0,0 l/m 2 min 0 min 268 W/m 16,1 km/h (3 Bft) 72,34 %
02.11.2022 09:52 12,9 C 12,8 C 8,9 C 80 % 1021,2 hPa 0,0 l/m 2 min 0 min 198 W/m 12,9 km/h (3 Bft) 95,74 %
02.11.2022 09:54 12,9 C 13,3 C 8,9 C 80 % 1021,3 hPa 0,0 l/m 0 min 0 min 58 W/m 25,7 km/h (4 Bft) 95,74 %
02.11.2022 09:56 12,9 C 13,9 C 8,9 C 80 % 1021,4 hPa 0,0 l/m 0 min 0 min 112 W/m 29,0 km/h (5 Bft) 89,36 %
02.11.2022 09:58 12,9 C 13,9 C 8,9 C 80 % 1021,4 hPa 0,0 l/m 0 min 0 min 87 W/m 16,1 km/h (3 Bft) 91,30 %
02.11.2022 10:00 12,9 C 14,4 C 8,9 C 80 % 1021,4 hPa 0,0 l/m 0 min 0 min 104 W/m 29,0 km/h (5 Bft) 82,98 %
02.11.2022 10:02 13,0 C 15,6 C 8,9 C 79 % 1021,4 hPa 0,0 l/m 0 min 0 min 97 W/m 29,0 km/h (5 Bft) 82,98 %
02.11.2022 10:04 13,0 C 16,7 C 8,9 C 79 % 1021,5 hPa 0,0 l/m 0 min 0 min 124 W/m 32,2 km/h (5 Bft) 87,23 %
02.11.2022 10:06 13,1 C 17,8 C 8,9 C 79 % 1021,4 hPa 0,0 l/m 0 min 0 min 116 W/m 12,9 km/h (3 Bft) 57,45 %
02.11.2022 10:08 13,2 C 18,3 C 8,9 C 79 % 1021,5 hPa 0,0 l/m 0 min 0 min 134 W/m 19,3 km/h (3 Bft) 65,96 %
02.11.2022 10:10 13,2 C 17,2 C 8,9 C 79 % 1021,5 hPa 0,0 l/m 0 min 0 min 121 W/m 19,3 km/h (3 Bft) 67,39 %
02.11.2022 10:12 13,2 C 15,0 C 8,9 C 79 % 1021,5 hPa 0,0 l/m 0 min 0 min 121 W/m 19,3 km/h (3 Bft) 72,34 %
02.11.2022 10:14 13,1 C 14,4 C 8,9 C 78 % 1021,5 hPa 0,0 l/m 0 min 0 min 49 W/m 22,5 km/h (4 Bft) 78,72 %
02.11.2022 10:16 13,1 C 15,0 C 8,9 C 78 % 1021,5 hPa 0,0 l/m 0 min 0 min 47 W/m 12,9 km/h (3 Bft) 68,09 %
02.11.2022 10:18 13,1 C 16,1 C 8,9 C 79 % 1021,5 hPa 0,0 l/m 0 min 0 min 47 W/m 16,1 km/h (3 Bft) 59,57 %
02.11.2022 10:20 13,1 C 16,7 C 8,9 C 79 % 1021,5 hPa 0,0 l/m 0 min 0 min 65 W/m 29,0 km/h (5 Bft) 57,45 %
02.11.2022 10:22 13,2 C 16,1 C 8,9 C 79 % 1021,6 hPa 0,0 l/m 0 min 0 min 55 W/m 16,1 km/h (3 Bft) 73,91 %
02.11.2022 10:24 13,2 C 16,7 C 8,9 C 79 % 1021,6 hPa 0,0 l/m 0 min 0 min 57 W/m 12,9 km/h (3 Bft) 74,47 %
02.11.2022 10:26 13,2 C 16,1 C 8,9 C 79 % 1021,7 hPa 0,0 l/m 2 min 0 min 306 W/m 12,9 km/h (3 Bft) 76,60 %
02.11.2022 10:28 13,3 C 15,6 C 8,9 C 78 % 1021,7 hPa 0,0 l/m 0 min 0 min 72 W/m 19,3 km/h (3 Bft) 70,21 %
02.11.2022 10:30 13,3 C 15,0 C 8,9 C 78 % 1021,7 hPa 0,0 l/m 0 min 0 min 95 W/m 12,9 km/h (3 Bft) 76,60 %
02.11.2022 10:32 13,3 C 15,6 C 8,9 C 78 % 1021,7 hPa 0,0 l/m 2 min 0 min 232 W/m 16,1 km/h (3 Bft) 76,60 %
02.11.2022 10:34 13,3 C 15,0 C 8,9 C 78 % 1021,7 hPa 0,0 l/m 2 min 0 min 306 W/m 12,9 km/h (3 Bft) 91,30 %
02.11.2022 10:36 13,3 C 14,4 C 8,9 C 78 % 1021,6 hPa 0,0 l/m 2 min 0 min 290 W/m 16,1 km/h (3 Bft) 76,60 %
02.11.2022 10:38 13,3 C 15,0 C 8,9 C 78 % 1021,6 hPa 0,0 l/m 0 min 0 min 118 W/m 9,7 km/h (2 Bft) 72,34 %
02.11.2022 10:40 13,3 C 14,4 C 8,9 C 78 % 1021,7 hPa 0,0 l/m 0 min 0 min 137 W/m 16,1 km/h (3 Bft) 76,60 %
02.11.2022 10:42 13,3 C 13,9 C 8,9 C 78 % 1021,7 hPa 0,0 l/m 0 min 0 min 121 W/m 19,3 km/h (3 Bft) 74,47 %
02.11.2022 10:44 13,3 C 13,9 C 8,9 C 78 % 1021,7 hPa 0,0 l/m 0 min 0 min 93 W/m 25,7 km/h (4 Bft) 89,36 %
02.11.2022 10:46 13,4 C 13,9 C 9,4 C 78 % 1021,7 hPa 0,0 l/m 2 min 0 min 245 W/m 12,9 km/h (3 Bft) 86,96 %
02.11.2022 10:48 13,4 C 14,4 C 9,4 C 78 % 1021,7 hPa 0,0 l/m 0 min 0 min 159 W/m 16,1 km/h (3 Bft) 89,36 %
02.11.2022 10:50 13,6 C 15,0 C 9,4 C 78 % 1021,7 hPa 0,0 l/m 2 min 0 min 249 W/m 12,9 km/h (3 Bft) 91,49 %
02.11.2022 10:52 13,7 C 15,6 C 9,4 C 77 % 1021,7 hPa 0,0 l/m 2 min 0 min 322 W/m 25,7 km/h (4 Bft) 89,36 %
02.11.2022 10:54 13,8 C 15,0 C 9,4 C 77 % 1021,8 hPa 0,0 l/m 2 min 0 min 285 W/m 12,9 km/h (3 Bft) 100,00 %
02.11.2022 10:56 13,9 C 15,0 C 9,4 C 77 % 1021,8 hPa 0,0 l/m 2 min 0 min 278 W/m 19,3 km/h (3 Bft) 93,62 %
02.11.2022 10:58 14,0 C 14,4 C 10,0 C 77 % 1021,7 hPa 0,0 l/m 2 min 0 min 213 W/m 16,1 km/h (3 Bft) 86,96 %
02.11.2022 11:00 14,1 C 14,4 C 10,0 C 76 % 1021,9 hPa 0,0 l/m 0 min 0 min 117 W/m 22,5 km/h (4 Bft) 78,72 %
02.11.2022 11:02 14,0 C 13,9 C 9,4 C 75 % 1021,7 hPa 0,0 l/m 0 min 0 min 80 W/m 19,3 km/h (3 Bft) 68,09 %
02.11.2022 11:04 14,0 C 13,9 C 9,4 C 75 % 1021,8 hPa 0,0 l/m 0 min 0 min 68 W/m 22,5 km/h (4 Bft) 82,98 %
02.11.2022 11:06 14,0 C 13,9 C 9,4 C 75 % 1021,8 hPa 0,0 l/m 0 min 0 min 135 W/m 22,5 km/h (4 Bft) 78,72 %
02.11.2022 11:08 14,0 C 13,9 C 9,4 C 75 % 1021,8 hPa 0,0 l/m 0 min 0 min 130 W/m 16,1 km/h (3 Bft) 89,36 %
02.11.2022 11:10 14,0 C 13,9 C 9,4 C 73 % 1021,9 hPa 0,0 l/m 0 min 0 min 118 W/m 38,6 km/h (5 Bft) 95,65 %
02.11.2022 11:12 13,9 C 13,9 C 9,4 C 74 % 1021,8 hPa 0,0 l/m 0 min 0 min 97 W/m 22,5 km/h (4 Bft) 76,60 %
02.11.2022 11:14 13,9 C 13,9 C 9,4 C 73 % 1021,9 hPa 0,0 l/m 0 min 0 min 107 W/m 22,5 km/h (4 Bft) 85,11 %
02.11.2022 11:16 14,0 C 13,9 C 9,4 C 74 % 1021,9 hPa 0,0 l/m 0 min 0 min 77 W/m 19,3 km/h (3 Bft) 85,11 %
02.11.2022 11:18 14,0 C 13,9 C 9,4 C 73 % 1021,8 hPa 0,0 l/m 0 min 0 min 61 W/m 22,5 km/h (4 Bft) 87,23 %
02.11.2022 11:20 14,0 C 13,9 C 9,4 C 73 % 1021,9 hPa 0,0 l/m 0 min 0 min 67 W/m 19,3 km/h (3 Bft) 70,21 %
02.11.2022 11:22 14,0 C 13,9 C 9,4 C 73 % 1022,0 hPa 0,0 l/m 0 min 0 min 74 W/m 16,1 km/h (3 Bft) 73,91 %
02.11.2022 11:24 13,9 C 13,9 C 9,4 C 73 % 1021,9 hPa 0,0 l/m 0 min 0 min 81 W/m 16,1 km/h (3 Bft) 87,23 %
02.11.2022 11:26 13,9 C 13,3 C 9,4 C 73 % 1022,0 hPa 0,0 l/m 0 min 0 min 70 W/m 19,3 km/h (3 Bft) 97,87 %
02.11.2022 11:28 13,9 C 13,3 C 9,4 C 73 % 1021,9 hPa 0,0 l/m 0 min 0 min 71 W/m 19,3 km/h (3 Bft) 91,49 %
02.11.2022 11:30 13,9 C 13,9 C 9,4 C 73 % 1021,9 hPa 0,0 l/m 0 min 0 min 70 W/m 16,1 km/h (3 Bft) 97,87 %
02.11.2022 11:32 13,9 C 13,9 C 9,4 C 73 % 1021,9 hPa 0,0 l/m 0 min 0 min 75 W/m 12,9 km/h (3 Bft) 97,87 %
02.11.2022 11:34 14,0 C 13,9 C 9,4 C 74 % 1022,0 hPa 0,0 l/m 0 min 0 min 74 W/m 19,3 km/h (3 Bft) 97,83 %
02.11.2022 11:36 14,1 C 13,9 C 10,0 C 74 % 1022,1 hPa 0,0 l/m 0 min 0 min 77 W/m 25,7 km/h (4 Bft) 97,87 %
02.11.2022 11:38 14,1 C 13,9 C 10,0 C 74 % 1022,0 hPa 0,0 l/m 0 min 0 min 71 W/m 22,5 km/h (4 Bft) 97,87 %
02.11.2022 11:40 14,2 C 13,9 C 10,0 C 73 % 1022,0 hPa 0,0 l/m 0 min 0 min 62 W/m 16,1 km/h (3 Bft) 97,87 %
02.11.2022 11:42 14,2 C 13,9 C 10,0 C 74 % 1022,1 hPa 0,0 l/m 0 min 0 min 67 W/m 16,1 km/h (3 Bft) 95,74 %
02.11.2022 11:44 14,3 C 13,9 C 10,0 C 74 % 1021,9 hPa 0,0 l/m 0 min 0 min 64 W/m 16,1 km/h (3 Bft) 91,49 %
02.11.2022 11:46 14,3 C 13,9 C 10,0 C 73 % 1021,9 hPa 0,0 l/m 0 min 0 min 50 W/m 25,7 km/h (4 Bft) 95,65 %
02.11.2022 11:48 14,3 C 13,9 C 10,0 C 73 % 1022,0 hPa 0,0 l/m 0 min 0 min 49 W/m 25,7 km/h (4 Bft) 97,87 %
02.11.2022 11:50 14,3 C 13,9 C 10,0 C 72 % 1021,9 hPa 0,0 l/m 0 min 0 min 49 W/m 29,0 km/h (5 Bft) 100,00 %
02.11.2022 11:52 14,3 C 13,9 C 10,0 C 72 % 1022,0 hPa 0,0 l/m 0 min 0 min 49 W/m 16,1 km/h (3 Bft) 97,87 %
02.11.2022 11:54 14,3 C 13,9 C 10,0 C 72 % 1021,9 hPa 0,0 l/m 0 min 0 min 49 W/m 16,1 km/h (3 Bft) 100,00 %
02.11.2022 11:56 14,3 C 13,9 C 10,0 C 72 % 1022,0 hPa 0,0 l/m 0 min 0 min 50 W/m 16,1 km/h (3 Bft) 97,87 %
02.11.2022 11:58 14,3 C 13,9 C 10,0 C 72 % 1022,0 hPa 0,0 l/m 0 min 0 min 49 W/m 22,5 km/h (4 Bft) 100,00 %
02.11.2022 12:00 14,3 C 13,9 C 10,0 C 72 % 1022,0 hPa 0,0 l/m 0 min 0 min 48 W/m 32,2 km/h (5 Bft) 97,87 %
02.11.2022 12:02 14,3 C 13,9 C 10,0 C 71 % 1022,0 hPa 0,0 l/m 0 min 0 min 49 W/m 25,7 km/h (4 Bft) 93,62 %
02.11.2022 12:04 14,3 C 13,9 C 10,0 C 71 % 1021,9 hPa 0,0 l/m 0 min 0 min 49 W/m 19,3 km/h (3 Bft) 97,87 %
02.11.2022 12:08 14,4 C 13,9 C 10,0 C 71 % 1022,0 hPa 0,0 l/m 0 min 0 min 53 W/m 22,5 km/h (4 Bft) 97,00 %
02.11.2022 12:10 14,4 C 13,9 C 10,0 C 71 % 1022,1 hPa 0,0 l/m 0 min 0 min 53 W/m 19,3 km/h (3 Bft) 97,87 %
02.11.2022 12:12 14,4 C 13,9 C 10,0 C 71 % 1022,2 hPa 0,0 l/m 0 min 0 min 53 W/m 19,3 km/h (3 Bft) 93,62 %
02.11.2022 12:14 14,4 C 13,9 C 10,0 C 70 % 1022,1 hPa 0,0 l/m 0 min 0 min 54 W/m 35,4 km/h (5 Bft) 97,83 %
02.11.2022 12:16 14,4 C 13,9 C 10,0 C 70 % 1022,1 hPa 0,0 l/m 0 min 0 min 60 W/m 16,1 km/h (3 Bft) 95,74 %
02.11.2022 12:18 14,4 C 13,9 C 10,0 C 71 % 1022,1 hPa 0,0 l/m 0 min 0 min 68 W/m 25,7 km/h (4 Bft) 97,87 %
02.11.2022 12:20 14,4 C 13,9 C 10,0 C 71 % 1022,1 hPa 0,0 l/m 0 min 0 min 55 W/m 19,3 km/h (3 Bft) 97,87 %
02.11.2022 12:22 14,4 C 13,9 C 10,0 C 71 % 1022,1 hPa 0,0 l/m 0 min 0 min 56 W/m 19,3 km/h (3 Bft) 97,87 %
02.11.2022 12:24 14,3 C 13,9 C 10,0 C 71 % 1022,2 hPa 0,0 l/m 0 min 0 min 60 W/m 16,1 km/h (3 Bft) 95,74 %
02.11.2022 12:26 14,4 C 13,9 C 10,0 C 71 % 1022,1 hPa 0,0 l/m 0 min 0 min 61 W/m 19,3 km/h (3 Bft) 95,65 %
02.11.2022 12:28 14,4 C 13,9 C 10,0 C 70 % 1022,1 hPa 0,0 l/m 0 min 0 min 59 W/m 25,7 km/h (4 Bft) 95,74 %
02.11.2022 12:30 14,4 C 13,9 C 10,0 C 70 % 1022,0 hPa 0,0 l/m 0 min 0 min 61 W/m 12,9 km/h (3 Bft) 93,62 %
02.11.2022 12:32 14,4 C 13,9 C 10,0 C 70 % 1022,1 hPa 0,0 l/m 0 min 0 min 59 W/m 19,3 km/h (3 Bft) 93,62 %
02.11.2022 12:34 14,5 C 14,4 C 10,0 C 70 % 1022,1 hPa 0,0 l/m 0 min 0 min 77 W/m 6,4 km/h (2 Bft) 95,74 %
02.11.2022 12:36 14,6 C 14,4 C 10,0 C 71 % 1022,1 hPa 0,0 l/m 0 min 0 min 94 W/m 12,9 km/h (3 Bft) 93,62 %
02.11.2022 12:38 14,6 C 14,4 C 10,6 C 71 % 1022,1 hPa 0,0 l/m 0 min 0 min 88 W/m 16,1 km/h (3 Bft) 95,65 %
02.11.2022 12:40 14,7 C 14,4 C 10,6 C 70 % 1022,0 hPa 0,0 l/m 0 min 0 min 99 W/m 25,7 km/h (4 Bft) 95,74 %
02.11.2022 12:42 14,7 C 15,0 C 10,6 C 70 % 1022,0 hPa 0,0 l/m 0 min 0 min 89 W/m 35,4 km/h (5 Bft) 97,87 %
02.11.2022 12:44 14,8 C 15,0 C 10,6 C 70 % 1022,1 hPa 0,0 l/m 0 min 0 min 87 W/m 25,7 km/h (4 Bft) 97,87 %
02.11.2022 12:46 14,8 C 15,0 C 10,6 C 70 % 1022,1 hPa 0,0 l/m 0 min 0 min 127 W/m 12,9 km/h (3 Bft) 97,87 %
02.11.2022 12:48 14,9 C 15,0 C 10,6 C 70 % 1022,1 hPa 0,0 l/m 0 min 0 min 127 W/m 19,3 km/h (3 Bft) 97,87 %
02.11.2022 12:50 14,9 C 15,0 C 10,6 C 69 % 1022,1 hPa 0,0 l/m 0 min 0 min 128 W/m 29,0 km/h (5 Bft) 97,83 %
02.11.2022 12:52 14,8 C 15,6 C 10,6 C 70 % 1022,2 hPa 0,0 l/m 0 min 0 min 164 W/m 29,0 km/h (5 Bft) 93,62 %
02.11.2022 12:54 14,8 C 16,1 C 10,6 C 70 % 1022,1 hPa 0,0 l/m 2 min 0 min 350 W/m 16,1 km/h (3 Bft) 97,87 %
02.11.2022 12:56 14,9 C 16,7 C 10,6 C 70 % 1022,0 hPa 0,0 l/m 2 min 0 min 434 W/m 12,9 km/h (3 Bft) 97,87 %
02.11.2022 12:58 15,0 C 16,7 C 10,6 C 70 % 1022,0 hPa 0,0 l/m 2 min 0 min 445 W/m 19,3 km/h (3 Bft) 97,87 %
02.11.2022 13:00 15,0 C 16,1 C 10,6 C 70 % 1022,0 hPa 0,0 l/m 2 min 0 min 200 W/m 22,5 km/h (4 Bft) 97,87 %
02.11.2022 13:02 15,1 C 15,6 C 10,6 C 70 % 1022,1 hPa 0,0 l/m 0 min 0 min 107 W/m 12,9 km/h (3 Bft) 95,65 %
02.11.2022 13:04 15,1 C 15,0 C 10,6 C 70 % 1022,0 hPa 0,0 l/m 0 min 0 min 130 W/m 19,3 km/h (3 Bft) 97,87 %
02.11.2022 13:06 15,0 C 15,0 C 10,6 C 70 % 1022,0 hPa 0,0 l/m 0 min 0 min 104 W/m 16,1 km/h (3 Bft) 97,87 %
02.11.2022 13:08 14,9 C 14,4 C 10,6 C 70 % 1022,0 hPa 0,0 l/m 0 min 0 min 89 W/m 19,3 km/h (3 Bft) 97,87 %
02.11.2022 13:10 14,8 C 14,4 C 10,6 C 70 % 1022,0 hPa 0,0 l/m 0 min 0 min 127 W/m 19,3 km/h (3 Bft) 97,87 %
02.11.2022 13:12 14,8 C 14,4 C 10,0 C 71 % 1021,9 hPa 0,0 l/m 0 min 0 min 105 W/m 6,4 km/h (2 Bft) 97,87 %
02.11.2022 13:14 14,8 C 14,4 C 10,0 C 71 % 1021,9 hPa 0,0 l/m 0 min 0 min 104 W/m 9,7 km/h (2 Bft) 100,00 %
02.11.2022 13:16 14,7 C 14,4 C 10,0 C 71 % 1021,9 hPa 0,0 l/m 0 min 0 min 183 W/m 16,1 km/h (3 Bft) 97,87 %
02.11.2022 13:18 14,7 C 14,4 C 10,0 C 71 % 1021,9 hPa 0,0 l/m 0 min 0 min 186 W/m 12,9 km/h (3 Bft) 95,74 %
02.11.2022 13:20 14,7 C 14,4 C 10,0 C 71 % 1022,0 hPa 0,0 l/m 0 min 0 min 86 W/m 19,3 km/h (3 Bft) 97,87 %
02.11.2022 13:22 14,7 C 14,4 C 10,0 C 71 % 1021,9 hPa 0,0 l/m 0 min 0 min 147 W/m 16,1 km/h (3 Bft) 97,87 %
02.11.2022 13:24 14,8 C 15,0 C 10,6 C 71 % 1021,8 hPa 0,0 l/m 2 min 0 min 422 W/m 12,9 km/h (3 Bft) 95,74 %
02.11.2022 13:26 14,8 C 15,0 C 10,6 C 71 % 1021,8 hPa 0,0 l/m 0 min 0 min 161 W/m 12,9 km/h (3 Bft) 95,65 %
02.11.2022 13:28 14,8 C 15,0 C 10,6 C 72 % 1021,9 hPa 0,0 l/m 0 min 0 min 150 W/m 3,2 km/h (1 Bft) 97,87 %
02.11.2022 13:30 14,9 C 15,6 C 10,6 C 72 % 1021,9 hPa 0,0 l/m 2 min 0 min 420 W/m 12,9 km/h (3 Bft) 95,74 %
02.11.2022 13:32 15,0 C 15,6 C 10,6 C 72 % 1021,9 hPa 0,0 l/m 2 min 0 min 439 W/m 9,7 km/h (2 Bft) 97,87 %
02.11.2022 13:34 15,1 C 16,1 C 10,6 C 72 % 1021,9 hPa 0,0 l/m 2 min 0 min 442 W/m 16,1 km/h (3 Bft) 97,87 %
02.11.2022 13:36 15,2 C 16,1 C 10,6 C 71 % 1021,8 hPa 0,0 l/m 2 min 0 min 402 W/m 12,9 km/h (3 Bft) 97,83 %
02.11.2022 13:38 15,3 C 16,1 C 11,1 C 71 % 1021,9 hPa 0,0 l/m 2 min 0 min 314 W/m 12,9 km/h (3 Bft) 95,74 %
02.11.2022 13:40 15,3 C 15,6 C 11,1 C 71 % 1021,9 hPa 0,0 l/m 0 min 0 min 138 W/m 12,9 km/h (3 Bft) 95,74 %
02.11.2022 13:42 15,3 C 15,0 C 10,6 C 70 % 1021,9 hPa 0,0 l/m 0 min 0 min 98 W/m 29,0 km/h (5 Bft) 97,87 %
02.11.2022 13:44 15,2 C 14,4 C 10,6 C 69 % 1021,8 hPa 0,0 l/m 0 min 0 min 109 W/m 29,0 km/h (5 Bft) 95,74 %
02.11.2022 13:46 15,1 C 14,4 C 10,6 C 70 % 1021,8 hPa 0,0 l/m 0 min 0 min 155 W/m 19,3 km/h (3 Bft) 97,87 %
02.11.2022 13:48 15,1 C 15,0 C 10,6 C 70 % 1021,9 hPa 0,0 l/m 2 min 0 min 196 W/m 29,0 km/h (5 Bft) 97,83 %
02.11.2022 13:50 15,0 C 15,6 C 10,6 C 70 % 1021,8 hPa 0,0 l/m 2 min 0 min 400 W/m 22,5 km/h (4 Bft) 95,74 %
02.11.2022 13:52 15,0 C 15,6 C 10,6 C 70 % 1021,9 hPa 0,0 l/m 2 min 0 min 420 W/m 19,3 km/h (3 Bft) 95,74 %
02.11.2022 13:54 15,1 C 15,6 C 10,6 C 71 % 1021,8 hPa 0,0 l/m 0 min 0 min 174 W/m 12,9 km/h (3 Bft) 97,87 %
02.11.2022 13:56 15,1 C 15,0 C 10,6 C 70 % 1021,9 hPa 0,0 l/m 0 min 0 min 132 W/m 22,5 km/h (4 Bft) 93,62 %
02.11.2022 13:58 14,9 C 14,4 C 10,6 C 71 % 1021,8 hPa 0,0 l/m 0 min 0 min 104 W/m 16,1 km/h (3 Bft) 100,00 %
02.11.2022 14:00 14,9 C 15,0 C 10,6 C 71 % 1021,7 hPa 0,0 l/m 0 min 0 min 127 W/m 22,5 km/h (4 Bft) 97,83 %
02.11.2022 14:02 14,9 C 15,6 C 10,6 C 71 % 1021,8 hPa 0,0 l/m 2 min 0 min 172 W/m 22,5 km/h (4 Bft) 95,74 %
02.11.2022 14:04 14,9 C 15,6 C 10,6 C 71 % 1021,7 hPa 0,0 l/m 2 min 0 min 259 W/m 12,9 km/h (3 Bft) 100,00 %
02.11.2022 14:06 14,9 C 16,1 C 10,6 C 71 % 1021,6 hPa 0,0 l/m 2 min 0 min 381 W/m 16,1 km/h (3 Bft) 100,00 %
02.11.2022 14:08 15,0 C 16,1 C 10,6 C 71 % 1021,6 hPa 0,0 l/m 2 min 0 min 350 W/m 19,3 km/h (3 Bft) 97,87 %
02.11.2022 14:10 15,1 C 16,1 C 10,6 C 71 % 1021,6 hPa 0,0 l/m 2 min 0 min 275 W/m 12,9 km/h (3 Bft) 100,00 %
02.11.2022 14:12 15,1 C 15,6 C 10,6 C 71 % 1021,6 hPa 0,0 l/m 2 min 0 min 197 W/m 25,7 km/h (4 Bft) 100,00 %
02.11.2022 14:14 15,1 C 15,0 C 10,6 C 70 % 1021,6 hPa 0,0 l/m 0 min 0 min 95 W/m 19,3 km/h (3 Bft) 97,87 %
02.11.2022 14:16 15,1 C 14,4 C 10,6 C 71 % 1021,5 hPa 0,0 l/m 0 min 0 min 65 W/m 9,7 km/h (2 Bft) 100,00 %
02.11.2022 14:18 15,1 C 14,4 C 10,6 C 71 % 1021,5 hPa 0,0 l/m 0 min 0 min 62 W/m 12,9 km/h (3 Bft) 100,00 %
02.11.2022 14:20 14,9 C 14,4 C 10,0 C 71 % 1021,6 hPa 0,0 l/m 0 min 0 min 100 W/m 16,1 km/h (3 Bft) 97,87 %
02.11.2022 14:22 14,9 C 14,4 C 10,0 C 71 % 1021,5 hPa 0,0 l/m 0 min 0 min 104 W/m 12,9 km/h (3 Bft) 100,00 %
02.11.2022 14:24 14,9 C 14,4 C 10,0 C 72 % 1021,5 hPa 0,0 l/m 0 min 0 min 81 W/m 6,4 km/h (2 Bft) 100,00 %
02.11.2022 14:26 14,8 C 14,4 C 10,0 C 72 % 1021,5 hPa 0,0 l/m 0 min 0 min 74 W/m 6,4 km/h (2 Bft) 97,83 %
02.11.2022 14:28 14,8 C 13,9 C 10,0 C 72 % 1021,4 hPa 0,0 l/m 0 min 0 min 75 W/m 9,7 km/h (2 Bft) 100,00 %
02.11.2022 14:30 14,7 C 14,4 C 10,0 C 72 % 1021,5 hPa 0,0 l/m 0 min 0 min 86 W/m 6,4 km/h (2 Bft) 97,87 %
02.11.2022 14:32 14,7 C 15,0 C 10,0 C 73 % 1021,4 hPa 0,0 l/m 2 min 0 min 273 W/m 9,7 km/h (2 Bft) 97,87 %
02.11.2022 14:34 14,7 C 15,0 C 10,6 C 73 % 1021,5 hPa 0,0 l/m 0 min 0 min 138 W/m 6,4 km/h (2 Bft) 100,00 %
02.11.2022 14:36 14,7 C 14,4 C 10,6 C 73 % 1021,4 hPa 0,0 l/m 0 min 0 min 109 W/m 6,4 km/h (2 Bft) 100,00 %
02.11.2022 14:38 14,7 C 15,6 C 10,6 C 73 % 1021,4 hPa 0,0 l/m 0 min 0 min 127 W/m 3,2 km/h (1 Bft) 95,74 %
02.11.2022 14:40 14,8 C 16,1 C 10,6 C 73 % 1021,4 hPa 0,0 l/m 2 min 0 min 328 W/m 12,9 km/h (3 Bft) 97,87 %
02.11.2022 14:42 14,8 C 16,1 C 10,6 C 73 % 1021,4 hPa 0,0 l/m 2 min 0 min 348 W/m 6,4 km/h (2 Bft) 100,00 %
02.11.2022 14:44 14,9 C 15,6 C 10,6 C 72 % 1021,4 hPa 0,0 l/m 0 min 0 min 133 W/m 16,1 km/h (3 Bft) 97,87 %
02.11.2022 14:46 14,9 C 15,0 C 10,6 C 72 % 1021,4 hPa 0,0 l/m 0 min 0 min 96 W/m 19,3 km/h (3 Bft) 100,00 %
02.11.2022 14:48 14,9 C 15,0 C 10,6 C 72 % 1021,4 hPa 0,0 l/m 0 min 0 min 79 W/m 12,9 km/h (3 Bft) 97,87 %
02.11.2022 14:50 14,9 C 14,4 C 10,6 C 71 % 1021,4 hPa 0,0 l/m 0 min 0 min 82 W/m 29,0 km/h (5 Bft) 97,87 %
02.11.2022 14:52 14,9 C 14,4 C 10,6 C 71 % 1021,4 hPa 0,0 l/m 2 min 0 min 157 W/m 12,9 km/h (3 Bft) 97,87 %
02.11.2022 14:54 14,9 C 15,0 C 10,6 C 71 % 1021,4 hPa 0,0 l/m 2 min 0 min 299 W/m 19,3 km/h (3 Bft) 95,74 %
02.11.2022 14:56 14,9 C 15,0 C 10,6 C 70 % 1021,4 hPa 0,0 l/m 2 min 0 min 254 W/m 19,3 km/h (3 Bft) 91,30 %
02.11.2022 14:58 14,9 C 14,4 C 10,6 C 70 % 1021,4 hPa 0,0 l/m 0 min 0 min 74 W/m 12,9 km/h (3 Bft) 95,74 %
02.11.2022 15:00 14,9 C 14,4 C 10,6 C 70 % 1021,4 hPa 0,0 l/m 0 min 0 min 93 W/m 29,0 km/h (5 Bft) 95,74 %
02.11.2022 15:02 14,9 C 14,4 C 10,6 C 70 % 1021,3 hPa 0,0 l/m 0 min 0 min 65 W/m 12,9 km/h (3 Bft) 91,49 %
02.11.2022 15:04 14,9 C 14,4 C 10,0 C 70 % 1021,3 hPa 0,0 l/m 0 min 0 min 54 W/m 16,1 km/h (3 Bft) 93,62 %
02.11.2022 15:06 14,8 C 13,9 C 10,0 C 70 % 1021,3 hPa 0,0 l/m 0 min 0 min 53 W/m 16,1 km/h (3 Bft) 93,62 %
02.11.2022 15:08 14,8 C 13,9 C 10,0 C 70 % 1021,3 hPa 0,0 l/m 0 min 0 min 83 W/m 19,3 km/h (3 Bft) 91,30 %
02.11.2022 15:10 14,8 C 14,4 C 10,0 C 70 % 1021,2 hPa 0,0 l/m 2 min 0 min 174 W/m 12,9 km/h (3 Bft) 95,74 %
02.11.2022 15:12 14,8 C 14,4 C 10,0 C 71 % 1021,2 hPa 0,0 l/m 2 min 0 min 128 W/m 6,4 km/h (2 Bft) 93,62 %
02.11.2022 15:14 14,8 C 14,4 C 10,0 C 71 % 1021,2 hPa 0,0 l/m 2 min 0 min 152 W/m 12,9 km/h (3 Bft) 91,49 %
02.11.2022 15:16 14,8 C 14,4 C 10,0 C 71 % 1021,3 hPa 0,0 l/m 2 min 0 min 186 W/m 16,1 km/h (3 Bft) 95,74 %
02.11.2022 15:18 14,8 C 14,4 C 10,6 C 71 % 1021,2 hPa 0,0 l/m 2 min 0 min 234 W/m 25,7 km/h (4 Bft) 95,74 %
02.11.2022 15:20 14,9 C 14,4 C 10,6 C 70 % 1021,1 hPa 0,0 l/m 2 min 0 min 228 W/m 22,5 km/h (4 Bft) 93,48 %
02.11.2022 15:22 14,9 C 14,4 C 10,6 C 69 % 1021,1 hPa 0,0 l/m 2 min 0 min 189 W/m 16,1 km/h (3 Bft) 91,49 %
02.11.2022 15:24 15,0 C 15,0 C 10,6 C 69 % 1021,2 hPa 0,0 l/m 2 min 0 min 142 W/m 22,5 km/h (4 Bft) 93,62 %
02.11.2022 15:26 15,1 C 15,0 C 10,6 C 68 % 1021,2 hPa 0,0 l/m 2 min 0 min 160 W/m 22,5 km/h (4 Bft) 93,62 %
02.11.2022 15:28 15,1 C 14,4 C 10,6 C 68 % 1021,2 hPa 0,0 l/m 2 min 0 min 171 W/m 35,4 km/h (5 Bft) 93,62 %
02.11.2022 15:30 15,1 C 14,4 C 10,6 C 68 % 1021,1 hPa 0,0 l/m 2 min 0 min 147 W/m 19,3 km/h (3 Bft) 95,74 %
02.11.2022 15:32 15,1 C 14,4 C 10,6 C 68 % 1021,2 hPa 0,0 l/m 2 min 0 min 156 W/m 19,3 km/h (3 Bft) 86,96 %
02.11.2022 15:34 15,1 C 14,4 C 10,6 C 68 % 1021,2 hPa 0,0 l/m 2 min 0 min 156 W/m 19,3 km/h (3 Bft) 97,87 %
02.11.2022 15:36 15,1 C 14,4 C 10,6 C 68 % 1021,1 hPa 0,0 l/m 0 min 0 min 95 W/m 25,7 km/h (4 Bft) 97,87 %
02.11.2022 15:38 15,1 C 14,4 C 10,6 C 68 % 1021,1 hPa 0,0 l/m 0 min 0 min 59 W/m 22,5 km/h (4 Bft) 95,74 %
02.11.2022 15:40 15,1 C 14,4 C 10,6 C 68 % 1021,1 hPa 0,0 l/m 0 min 0 min 54 W/m 25,7 km/h (4 Bft) 95,74 %
02.11.2022 15:42 15,1 C 14,4 C 10,6 C 68 % 1021,1 hPa 0,0 l/m 0 min 0 min 53 W/m 12,9 km/h (3 Bft) 93,62 %
02.11.2022 15:44 15,1 C 14,4 C 10,6 C 69 % 1021,1 hPa 0,0 l/m 0 min 0 min 50 W/m 16,1 km/h (3 Bft) 93,48 %
02.11.2022 15:46 15,1 C 14,4 C 10,6 C 69 % 1021,0 hPa 0,0 l/m 0 min 0 min 49 W/m 22,5 km/h (4 Bft) 97,87 %
02.11.2022 15:48 15,1 C 14,4 C 10,6 C 69 % 1020,9 hPa 0,0 l/m 0 min 0 min 48 W/m 16,1 km/h (3 Bft) 97,87 %
02.11.2022 15:50 15,0 C 14,4 C 10,0 C 69 % 1021,0 hPa 0,0 l/m 0 min 0 min 45 W/m 16,1 km/h (3 Bft) 97,87 %
02.11.2022 15:52 14,9 C 13,9 C 10,0 C 69 % 1021,0 hPa 0,0 l/m 0 min 0 min 41 W/m 22,5 km/h (4 Bft) 97,87 %
02.11.2022 15:54 14,9 C 13,9 C 10,0 C 69 % 1020,9 hPa 0,0 l/m 0 min 0 min 40 W/m 29,0 km/h (5 Bft) 97,87 %
02.11.2022 15:56 14,9 C 13,9 C 10,0 C 69 % 1021,0 hPa 0,0 l/m 0 min 0 min 37 W/m 16,1 km/h (3 Bft) 97,83 %
02.11.2022 15:58 14,8 C 13,9 C 10,0 C 69 % 1021,0 hPa 0,0 l/m 0 min 0 min 33 W/m 3,2 km/h (1 Bft) 97,87 %
02.11.2022 16:00 14,8 C 13,9 C 10,0 C 70 % 1021,0 hPa 0,0 l/m 0 min 0 min 27 W/m 6,4 km/h (2 Bft) 97,87 %
02.11.2022 16:02 14,8 C 13,9 C 10,0 C 70 % 1020,9 hPa 0,0 l/m 0 min 0 min 24 W/m 25,7 km/h (4 Bft) 97,87 %
02.11.2022 16:04 14,7 C 13,9 C 10,0 C 70 % 1020,9 hPa 0,0 l/m 0 min 0 min 21 W/m 12,9 km/h (3 Bft) 97,87 %
02.11.2022 16:06 14,6 C 13,3 C 10,0 C 70 % 1020,9 hPa 0,0 l/m 0 min 0 min 19 W/m 12,9 km/h (3 Bft) 97,87 %
02.11.2022 16:08 14,6 C 13,3 C 9,4 C 70 % 1020,9 hPa 0,0 l/m 0 min 0 min 18 W/m 12,9 km/h (3 Bft) 97,83 %
02.11.2022 16:10 14,6 C 13,3 C 9,4 C 70 % 1020,9 hPa 0,0 l/m 0 min 0 min 18 W/m 12,9 km/h (3 Bft) 97,87 %
02.11.2022 16:12 14,4 C 13,3 C 9,4 C 70 % 1020,8 hPa 0,0 l/m 0 min 0 min 17 W/m 9,7 km/h (2 Bft) 97,87 %
02.11.2022 16:14 14,4 C 13,3 C 9,4 C 70 % 1020,8 hPa 0,0 l/m 0 min 0 min 16 W/m 16,1 km/h (3 Bft) 100,00 %
02.11.2022 16:16 14,3 C 13,3 C 9,4 C 71 % 1020,7 hPa 0,0 l/m 0 min 0 min 16 W/m 12,9 km/h (3 Bft) 100,00 %
02.11.2022 16:18 14,3 C 13,3 C 9,4 C 71 % 1020,7 hPa 0,0 l/m 0 min 0 min 16 W/m 9,7 km/h (2 Bft) 100,00 %
02.11.2022 16:20 14,3 C 12,8 C 9,4 C 71 % 1020,7 hPa 0,0 l/m 0 min 0 min 16 W/m 9,7 km/h (2 Bft) 100,00 %
02.11.2022 16:22 14,3 C 12,8 C 9,4 C 71 % 1020,7 hPa 0,0 l/m 0 min 0 min 16 W/m 16,1 km/h (3 Bft) 97,87 %
02.11.2022 16:24 14,3 C 12,8 C 9,4 C 71 % 1020,7 hPa 0,0 l/m 0 min 0 min 16 W/m 16,1 km/h (3 Bft) 100,00 %
02.11.2022 16:26 14,2 C 12,8 C 9,4 C 71 % 1020,7 hPa 0,0 l/m 0 min 0 min 14 W/m 16,1 km/h (3 Bft) 74,47 %
02.11.2022 16:28 14,2 C 12,8 C 9,4 C 71 % 1020,7 hPa 0,0 l/m 0 min 0 min 14 W/m 19,3 km/h (3 Bft) 65,96 %
02.11.2022 16:30 14,1 C 12,8 C 9,4 C 72 % 1020,7 hPa 0,0 l/m 0 min 0 min 14 W/m 12,9 km/h (3 Bft) 63,83 %
02.11.2022 16:32 14,1 C 12,8 C 9,4 C 72 % 1020,7 hPa 0,0 l/m 0 min 0 min 14 W/m 9,7 km/h (2 Bft) 78,26 %
02.11.2022 16:34 14,1 C 12,8 C 8,9 C 72 % 1020,7 hPa 0,0 l/m 0 min 0 min 14 W/m 9,7 km/h (2 Bft) 87,23 %
02.11.2022 16:36 14,0 C 12,8 C 8,9 C 72 % 1020,8 hPa 0,0 l/m 0 min 0 min 14 W/m 9,7 km/h (2 Bft) 97,87 %
02.11.2022 16:38 13,9 C 12,8 C 8,9 C 72 % 1020,8 hPa 0,0 l/m 0 min 0 min 12 W/m 16,1 km/h (3 Bft) 82,98 %
02.11.2022 16:40 13,9 C 12,8 C 8,9 C 72 % 1020,7 hPa 0,0 l/m 0 min 0 min 14 W/m 12,9 km/h (3 Bft) 93,62 %
02.11.2022 16:42 13,9 C 12,8 C 8,9 C 72 % 1020,7 hPa 0,0 l/m 0 min 0 min 14 W/m 6,4 km/h (2 Bft) 85,11 %
02.11.2022 16:44 13,8 C 12,8 C 8,9 C 73 % 1020,7 hPa 0,0 l/m 0 min 0 min 12 W/m 6,4 km/h (2 Bft) 84,78 %
02.11.2022 16:46 13,8 C 12,2 C 8,9 C 73 % 1020,7 hPa 0,0 l/m 0 min 0 min 12 W/m 3,2 km/h (1 Bft) 100,00 %
02.11.2022 16:48 13,8 C 12,2 C 8,9 C 73 % 1020,7 hPa 0,0 l/m 0 min 0 min 12 W/m 6,4 km/h (2 Bft) 93,62 %
02.11.2022 16:50 13,7 C 12,2 C 8,9 C 73 % 1020,7 hPa 0,0 l/m 0 min 0 min 14 W/m 9,7 km/h (2 Bft) 97,87 %
02.11.2022 16:52 13,7 C 12,2 C 8,9 C 73 % 1020,7 hPa 0,0 l/m 0 min 0 min 12 W/m 3,2 km/h (1 Bft) 97,87 %
02.11.2022 16:54 13,6 C 12,2 C 8,9 C 73 % 1020,7 hPa 0,0 l/m 0 min 0 min 10 W/m 12,9 km/h (3 Bft) 89,36 %
02.11.2022 16:56 13,6 C 12,2 C 8,9 C 73 % 1020,7 hPa 0,0 l/m 0 min 0 min 9 W/m 12,9 km/h (3 Bft) 91,30 %
02.11.2022 16:58 13,5 C 12,2 C 8,3 C 73 % 1020,7 hPa 0,0 l/m 0 min 0 min 7 W/m 9,7 km/h (2 Bft) 95,74 %
02.11.2022 17:00 13,4 C 12,2 C 8,3 C 73 % 1020,6 hPa 0,0 l/m 0 min 0 min 5 W/m 9,7 km/h (2 Bft) 95,74 %
02.11.2022 17:02 13,4 C 12,2 C 8,3 C 74 % 1020,6 hPa 0,0 l/m 0 min 0 min 3 W/m 12,9 km/h (3 Bft) 82,98 %
02.11.2022 17:04 13,4 C 12,2 C 8,3 C 74 % 1020,7 hPa 0,0 l/m 0 min 0 min 0 W/m 12,9 km/h (3 Bft) 82,98 %
02.11.2022 17:06 13,3 C 12,2 C 8,3 C 74 % 1020,6 hPa 0,0 l/m 0 min 0 min 0 W/m 12,9 km/h (3 Bft) 97,87 %
02.11.2022 17:08 13,3 C 12,2 C 8,3 C 74 % 1020,6 hPa 0,0 l/m 0 min 0 min 0 W/m 6,4 km/h (2 Bft) 95,65 %
02.11.2022 17:10 13,3 C 12,2 C 8,3 C 74 % 1020,6 hPa 0,0 l/m 0 min 0 min 0 W/m 12,9 km/h (3 Bft) 89,36 %
02.11.2022 17:12 13,2 C 12,2 C 8,3 C 74 % 1020,6 hPa 0,0 l/m 0 min 0 min 0 W/m 12,9 km/h (3 Bft) 53,19 %
02.11.2022 17:14 13,2 C 12,2 C 8,3 C 74 % 1020,6 hPa 0,0 l/m 0 min 0 min 0 W/m 6,4 km/h (2 Bft) 97,87 %
02.11.2022 17:16 13,1 C 12,2 C 8,3 C 73 % 1020,5 hPa 0,0 l/m 0 min 0 min 0 W/m 19,3 km/h (3 Bft) 100,00 %
02.11.2022 17:18 13,1 C 12,2 C 8,3 C 73 % 1020,5 hPa 0,0 l/m 0 min 0 min 0 W/m 16,1 km/h (3 Bft) 97,87 %
02.11.2022 17:20 13,1 C 12,2 C 8,3 C 73 % 1020,5 hPa 0,0 l/m 0 min 0 min 0 W/m 16,1 km/h (3 Bft) 100,00 %
02.11.2022 17:22 13,1 C 12,2 C 8,3 C 73 % 1020,4 hPa 0,0 l/m 0 min 0 min 0 W/m 16,1 km/h (3 Bft) 97,87 %
02.11.2022 17:24 13,0 C 11,7 C 8,3 C 73 % 1020,4 hPa 0,0 l/m 0 min 0 min 0 W/m 6,4 km/h (2 Bft) 95,74 %
02.11.2022 17:26 13,0 C 11,7 C 8,3 C 73 % 1020,4 hPa 0,0 l/m 0 min 0 min 0 W/m 9,7 km/h (2 Bft) 97,87 %
02.11.2022 17:28 12,9 C 11,7 C 8,3 C 73 % 1020,4 hPa 0,0 l/m 0 min 0 min 0 W/m 6,4 km/h (2 Bft) 100,00 %
02.11.2022 17:30 12,9 C 11,7 C 8,3 C 73 % 1020,4 hPa 0,0 l/m 0 min 0 min 0 W/m 9,7 km/h (2 Bft) 95,74 %
02.11.2022 17:32 12,9 C 11,7 C 8,3 C 74 % 1020,4 hPa 0,0 l/m 0 min 0 min 0 W/m 3,2 km/h (1 Bft) 95,65 %
02.11.2022 17:34 12,9 C 11,7 C 8,3 C 74 % 1020,4 hPa 0,0 l/m 0 min 0 min 0 W/m 3,2 km/h (1 Bft) 93,62 %
02.11.2022 17:36 12,8 C 11,7 C 7,8 C 74 % 1020,4 hPa 0,0 l/m 0 min 0 min 0 W/m 3,2 km/h (1 Bft) 93,62 %
02.11.2022 17:38 12,8 C 11,7 C 7,8 C 74 % 1020,4 hPa 0,0 l/m 0 min 0 min 0 W/m 9,7 km/h (2 Bft) 91,49 %
02.11.2022 17:40 12,7 C 11,7 C 7,8 C 74 % 1020,4 hPa 0,0 l/m 0 min 0 min 0 W/m 9,7 km/h (2 Bft) 93,62 %
02.11.2022 17:42 12,7 C 11,7 C 7,8 C 74 % 1020,4 hPa 0,0 l/m 0 min 0 min 0 W/m 6,4 km/h (2 Bft) 93,62 %
02.11.2022 17:44 12,7 C 11,7 C 7,8 C 74 % 1020,4 hPa 0,0 l/m 0 min 0 min 0 W/m 0,0 km/h (0 Bft) 93,48 %
02.11.2022 17:46 12,6 C 11,1 C 7,8 C 74 % 1020,4 hPa 0,0 l/m 0 min 0 min 0 W/m 3,2 km/h (1 Bft) 93,62 %
02.11.2022 17:48 12,6 C 11,1 C 7,8 C 74 % 1020,4 hPa 0,0 l/m 0 min 0 min 0 W/m 3,2 km/h (1 Bft) 93,62 %
02.11.2022 17:50 12,6 C 11,1 C 7,8 C 75 % 1020,4 hPa 0,0 l/m 0 min 0 min 0 W/m 3,2 km/h (1 Bft) 89,36 %
02.11.2022 17:52 12,6 C 11,1 C 7,8 C 75 % 1020,4 hPa 0,0 l/m 0 min 0 min 0 W/m 3,2 km/h (1 Bft) 91,49 %
02.11.2022 17:54 12,6 C 11,1 C 7,8 C 75 % 1020,4 hPa 0,0 l/m 0 min 0 min 0 W/m 3,2 km/h (1 Bft) 93,62 %
02.11.2022 17:56 12,5 C 11,1 C 7,8 C 75 % 1020,4 hPa 0,0 l/m 0 min 0 min 0 W/m 3,2 km/h (1 Bft) 91,30 %
02.11.2022 17:58 12,5 C 11,1 C 7,8 C 75 % 1020,4 hPa 0,0 l/m 0 min 0 min 0 W/m 3,2 km/h (1 Bft) 94,00 %
02.11.2022 18:00 12,4 C 11,1 C 7,8 C 75 % 1020,4 hPa 0,0 l/m 0 min 0 min 0 W/m 3,2 km/h (1 Bft) 93,62 %
02.11.2022 18:02 12,4 C 11,1 C 7,8 C 75 % 1020,4 hPa 0,0 l/m 0 min 0 min 0 W/m 6,4 km/h (2 Bft) 91,49 %
02.11.2022 18:04 12,3 C 10,6 C 7,8 C 75 % 1020,4 hPa 0,0 l/m 0 min 0 min 0 W/m 6,4 km/h (2 Bft) 95,74 %
02.11.2022 18:08 12,3 C 10,6 C 7,2 C 76 % 1020,4 hPa 0,0 l/m 0 min 0 min 0 W/m 3,2 km/h (1 Bft) 93,75 %
02.11.2022 18:10 12,2 C 10,6 C 7,2 C 76 % 1020,4 hPa 0,0 l/m 0 min 0 min 0 W/m 3,2 km/h (1 Bft) 97,83 %
02.11.2022 18:12 12,2 C 10,6 C 7,2 C 76 % 1020,4 hPa 0,0 l/m 0 min 0 min 0 W/m 6,4 km/h (2 Bft) 97,87 %
02.11.2022 18:14 12,1 C 10,6 C 7,2 C 76 % 1020,5 hPa 0,0 l/m 0 min 0 min 0 W/m 3,2 km/h (1 Bft) 97,87 %
02.11.2022 18:16 12,1 C 10,6 C 7,2 C 76 % 1020,4 hPa 0,0 l/m 0 min 0 min 0 W/m 3,2 km/h (1 Bft) 97,87 %
02.11.2022 18:18 12,0 C 10,6 C 7,2 C 77 % 1020,4 hPa 0,0 l/m 0 min 0 min 0 W/m 3,2 km/h (1 Bft) 97,87 %
02.11.2022 18:20 11,9 C 10,6 C 7,2 C 77 % 1020,4 hPa 0,0 l/m 0 min 0 min 0 W/m 6,4 km/h (2 Bft) 97,87 %
02.11.2022 18:22 11,9 C 10,6 C 7,2 C 77 % 1020,4 hPa 0,0 l/m 0 min 0 min 0 W/m 6,4 km/h (2 Bft) 95,65 %
02.11.2022 18:24 11,9 C 10,6 C 7,2 C 77 % 1020,4 hPa 0,0 l/m 0 min 0 min 0 W/m 6,4 km/h (2 Bft) 97,87 %
02.11.2022 18:26 11,8 C 10,6 C 7,2 C 77 % 1020,5 hPa 0,0 l/m 0 min 0 min 0 W/m 3,2 km/h (1 Bft) 97,87 %
02.11.2022 18:28 11,8 C 10,6 C 7,2 C 77 % 1020,4 hPa 0,0 l/m 0 min 0 min 0 W/m 6,4 km/h (2 Bft) 100,00 %
02.11.2022 18:30 11,7 C 10,6 C 7,2 C 77 % 1020,4 hPa 0,0 l/m 0 min 0 min 0 W/m 3,2 km/h (1 Bft) 100,00 %
02.11.2022 18:32 11,7 C 10,6 C 7,2 C 77 % 1020,5 hPa 0,0 l/m 0 min 0 min 0 W/m 6,4 km/h (2 Bft) 97,87 %
02.11.2022 18:34 11,6 C 10,6 C 7,2 C 78 % 1020,5 hPa 0,0 l/m 0 min 0 min 0 W/m 6,4 km/h (2 Bft) 100,00 %
02.11.2022 18:36 11,6 C 10,6 C 7,2 C 78 % 1020,5 hPa 0,0 l/m 0 min 0 min 0 W/m 9,7 km/h (2 Bft) 100,00 %
02.11.2022 18:38 11,6 C 10,6 C 7,2 C 78 % 1020,5 hPa 0,0 l/m 0 min 0 min 0 W/m 6,4 km/h (2 Bft) 100,00 %
02.11.2022 18:40 11,5 C 10,6 C 7,2 C 78 % 1020,6 hPa 0,0 l/m 0 min 0 min 0 W/m 12,9 km/h (3 Bft) 97,87 %
02.11.2022 18:42 11,4 C 10,6 C 7,2 C 78 % 1020,5 hPa 0,0 l/m 0 min 0 min 0 W/m 6,4 km/h (2 Bft) 100,00 %
02.11.2022 18:44 11,4 C 10,6 C 7,2 C 78 % 1020,5 hPa 0,0 l/m 0 min 0 min 0 W/m 6,4 km/h (2 Bft) 97,87 %
02.11.2022 18:46 11,4 C 10,6 C 7,2 C 77 % 1020,5 hPa 0,0 l/m 0 min 0 min 0 W/m 6,4 km/h (2 Bft) 100,00 %
02.11.2022 18:48 11,4 C 10,6 C 7,2 C 77 % 1020,5 hPa 0,0 l/m 0 min 0 min 0 W/m 3,2 km/h (1 Bft) 100,00 %
02.11.2022 18:50 11,4 C 10,6 C 7,2 C 77 % 1020,5 hPa 0,0 l/m 0 min 0 min 0 W/m 12,9 km/h (3 Bft) 97,87 %
02.11.2022 18:52 11,3 C 10,6 C 7,2 C 77 % 1020,5 hPa 0,0 l/m 0 min 0 min 0 W/m 6,4 km/h (2 Bft) 100,00 %
02.11.2022 18:54 11,3 C 10,6 C 7,2 C 77 % 1020,5 hPa 0,0 l/m 0 min 0 min 0 W/m 9,7 km/h (2 Bft) 100,00 %
02.11.2022 18:56 11,3 C 10,6 C 7,2 C 77 % 1020,4 hPa 0,0 l/m 0 min 0 min 0 W/m 9,7 km/h (2 Bft) 100,00 %
02.11.2022 18:58 11,3 C 10,6 C 7,2 C 77 % 1020,4 hPa 0,0 l/m 0 min 0 min 0 W/m 6,4 km/h (2 Bft) 97,87 %
02.11.2022 19:00 11,3 C 10,6 C 7,2 C 77 % 1020,4 hPa 0,0 l/m 0 min 0 min 0 W/m 6,4 km/h (2 Bft) 100,00 %
02.11.2022 19:02 11,3 C 10,6 C 7,2 C 77 % 1020,4 hPa 0,0 l/m 0 min 0 min 0 W/m 6,4 km/h (2 Bft) 100,00 %
02.11.2022 19:04 11,2 C 10,6 C 7,2 C 78 % 1020,4 hPa 0,0 l/m 0 min 0 min 0 W/m 6,4 km/h (2 Bft) 100,00 %
02.11.2022 19:06 11,2 C 10,6 C 7,2 C 78 % 1020,4 hPa 0,0 l/m 0 min 0 min 0 W/m 6,4 km/h (2 Bft) 100,00 %
02.11.2022 19:08 11,2 C 10,6 C 7,2 C 78 % 1020,4 hPa 0,0 l/m 0 min 0 min 0 W/m 12,9 km/h (3 Bft) 97,87 %
02.11.2022 19:10 11,2 C 10,6 C 7,2 C 78 % 1020,3 hPa 0,0 l/m 0 min 0 min 0 W/m 12,9 km/h (3 Bft) 100,00 %
02.11.2022 19:12 11,2 C 10,6 C 7,2 C 78 % 1020,3 hPa 0,0 l/m 0 min 0 min 0 W/m 9,7 km/h (2 Bft) 100,00 %
02.11.2022 19:14 11,2 C 10,6 C 7,2 C 78 % 1020,3 hPa 0,0 l/m 0 min 0 min 0 W/m 3,2 km/h (1 Bft) 100,00 %
02.11.2022 19:16 11,2 C 10,6 C 7,2 C 78 % 1020,2 hPa 0,0 l/m 0 min 0 min 0 W/m 12,9 km/h (3 Bft) 97,87 %
02.11.2022 19:18 11,2 C 10,6 C 7,2 C 78 % 1020,2 hPa 0,0 l/m 0 min 0 min 0 W/m 6,4 km/h (2 Bft) 100,00 %
02.11.2022 19:20 11,2 C 10,6 C 7,2 C 77 % 1020,1 hPa 0,0 l/m 0 min 0 min 0 W/m 6,4 km/h (2 Bft) 97,87 %
02.11.2022 19:22 11,2 C 10,6 C 7,2 C 77 % 1020,2 hPa 0,0 l/m 0 min 0 min 0 W/m 3,2 km/h (1 Bft) 97,87 %
02.11.2022 19:24 11,2 C 10,6 C 7,2 C 77 % 1020,1 hPa 0,0 l/m 0 min 0 min 0 W/m 6,4 km/h (2 Bft) 97,87 %
02.11.2022 19:26 11,2 C 10,6 C 7,2 C 77 % 1020,2 hPa 0,0 l/m 0 min 0 min 0 W/m 3,2 km/h (1 Bft) 97,87 %
02.11.2022 19:28 11,2 C 10,6 C 7,2 C 77 % 1020,1 hPa 0,0 l/m 0 min 0 min 0 W/m 6,4 km/h (2 Bft) 97,87 %
02.11.2022 19:30 11,2 C 10,6 C 7,2 C 77 % 1020,1 hPa 0,0 l/m 0 min 0 min 0 W/m 3,2 km/h (1 Bft) 97,83 %
02.11.2022 19:32 11,2 C 10,6 C 7,2 C 78 % 1020,2 hPa 0,0 l/m 0 min 0 min 0 W/m 6,4 km/h (2 Bft) 95,74 %
02.11.2022 19:34 11,2 C 10,6 C 7,2 C 77 % 1020,1 hPa 0,0 l/m 0 min 0 min 0 W/m 3,2 km/h (1 Bft) 97,87 %
02.11.2022 19:36 11,2 C 10,6 C 7,2 C 77 % 1020,1 hPa 0,0 l/m 0 min 0 min 0 W/m 6,4 km/h (2 Bft) 95,74 %
02.11.2022 19:38 11,2 C 10,6 C 7,2 C 77 % 1020,2 hPa 0,0 l/m 0 min 0 min 0 W/m 6,4 km/h (2 Bft) 97,87 %
02.11.2022 19:40 11,2 C 10,6 C 7,2 C 77 % 1020,2 hPa 0,0 l/m 0 min 0 min 0 W/m 3,2 km/h (1 Bft) 97,83 %
02.11.2022 19:42 11,2 C 10,6 C 6,7 C 77 % 1020,1 hPa 0,0 l/m 0 min 0 min 0 W/m 6,4 km/h (2 Bft) 95,74 %
02.11.2022 19:44 11,2 C 10,0 C 6,7 C 78 % 1020,1 hPa 0,0 l/m 0 min 0 min 0 W/m 6,4 km/h (2 Bft) 97,87 %
02.11.2022 19:46 11,2 C 10,0 C 6,7 C 78 % 1020,1 hPa 0,0 l/m 0 min 0 min 0 W/m 3,2 km/h (1 Bft) 97,87 %
02.11.2022 19:48 11,1 C 10,0 C 6,7 C 78 % 1020,2 hPa 0,0 l/m 0 min 0 min 0 W/m 3,2 km/h (1 Bft) 95,74 %
02.11.2022 19:50 11,1 C 10,0 C 6,7 C 78 % 1020,2 hPa 0,0 l/m 0 min 0 min 0 W/m 3,2 km/h (1 Bft) 97,87 %
02.11.2022 19:52 11,1 C 10,0 C 6,7 C 78 % 1020,2 hPa 0,0 l/m 0 min 0 min 0 W/m 6,4 km/h (2 Bft) 97,83 %
02.11.2022 19:54 11,1 C 10,0 C 6,7 C 78 % 1020,1 hPa 0,0 l/m 0 min 0 min 0 W/m 3,2 km/h (1 Bft) 97,87 %
02.11.2022 19:56 11,1 C 10,0 C 6,7 C 78 % 1020,1 hPa 0,0 l/m 0 min 0 min 0 W/m 6,4 km/h (2 Bft) 97,87 %
02.11.2022 19:58 11,1 C 10,0 C 6,7 C 78 % 1020,1 hPa 0,0 l/m 0 min 0 min 0 W/m 3,2 km/h (1 Bft) 97,87 %
02.11.2022 20:00 11,1 C 10,0 C 6,7 C 78 % 1020,1 hPa 0,0 l/m 0 min 0 min 0 W/m 3,2 km/h (1 Bft) 97,87 %
02.11.2022 20:02 11,0 C 10,0 C 6,7 C 78 % 1020,1 hPa 0,0 l/m 0 min 0 min 0 W/m 6,4 km/h (2 Bft) 97,87 %
02.11.2022 20:04 11,0 C 10,0 C 6,7 C 78 % 1020,1 hPa 0,0 l/m 0 min 0 min 0 W/m 6,4 km/h (2 Bft) 97,87 %
02.11.2022 20:06 11,0 C 10,0 C 6,7 C 78 % 1020,1 hPa 0,0 l/m 0 min 0 min 0 W/m 3,2 km/h (1 Bft) 97,83 %
02.11.2022 20:08 10,9 C 10,0 C 6,7 C 78 % 1020,1 hPa 0,0 l/m 0 min 0 min 0 W/m 12,9 km/h (3 Bft) 97,87 %
02.11.2022 20:10 10,9 C 10,0 C 6,7 C 78 % 1020,0 hPa 0,0 l/m 0 min 0 min 0 W/m 3,2 km/h (1 Bft) 97,87 %
02.11.2022 20:12 10,9 C 10,0 C 6,7 C 78 % 1020,0 hPa 0,0 l/m 0 min 0 min 0 W/m 6,4 km/h (2 Bft) 97,87 %
02.11.2022 20:14 10,9 C 10,0 C 6,7 C 78 % 1019,9 hPa 0,0 l/m 0 min 0 min 0 W/m 12,9 km/h (3 Bft) 97,87 %
02.11.2022 20:16 10,8 C 10,0 C 6,7 C 78 % 1019,9 hPa 0,0 l/m 0 min 0 min 0 W/m 12,9 km/h (3 Bft) 97,83 %
02.11.2022 20:18 10,8 C 10,0 C 6,7 C 79 % 1019,9 hPa 0,0 l/m 0 min 0 min 0 W/m 6,4 km/h (2 Bft) 97,87 %
02.11.2022 20:20 10,8 C 10,0 C 6,7 C 79 % 1019,9 hPa 0,0 l/m 0 min 0 min 0 W/m 6,4 km/h (2 Bft) 95,74 %
02.11.2022 20:22 10,8 C 10,0 C 6,7 C 79 % 1019,9 hPa 0,0 l/m 0 min 0 min 0 W/m 6,4 km/h (2 Bft) 95,74 %
02.11.2022 20:24 10,8 C 10,0 C 6,7 C 79 % 1019,9 hPa 0,0 l/m 0 min 0 min 0 W/m 6,4 km/h (2 Bft) 95,74 %
02.11.2022 20:26 10,7 C 9,4 C 6,7 C 79 % 1019,8 hPa 0,0 l/m 0 min 0 min 0 W/m 6,4 km/h (2 Bft) 97,87 %
02.11.2022 20:28 10,7 C 9,4 C 6,7 C 79 % 1019,8 hPa 0,0 l/m 0 min 0 min 0 W/m 6,4 km/h (2 Bft) 97,83 %
02.11.2022 20:30 10,7 C 9,4 C 6,7 C 79 % 1019,8 hPa 0,0 l/m 0 min 0 min 0 W/m 6,4 km/h (2 Bft) 100,00 %
02.11.2022 20:32 10,7 C 9,4 C 6,1 C 79 % 1019,8 hPa 0,0 l/m 0 min 0 min 0 W/m 6,4 km/h (2 Bft) 100,00 %
02.11.2022 20:34 10,6 C 9,4 C 6,1 C 80 % 1019,7 hPa 0,0 l/m 0 min 0 min 0 W/m 6,4 km/h (2 Bft) 97,87 %
02.11.2022 20:36 10,6 C 9,4 C 6,1 C 80 % 1019,7 hPa 0,0 l/m 0 min 0 min 0 W/m 6,4 km/h (2 Bft) 100,00 %
02.11.2022 20:38 10,6 C 9,4 C 6,1 C 80 % 1019,7 hPa 0,0 l/m 0 min 0 min 0 W/m 6,4 km/h (2 Bft) 100,00 %
02.11.2022 20:40 10,5 C 9,4 C 6,1 C 80 % 1019,6 hPa 0,0 l/m 0 min 0 min 0 W/m 6,4 km/h (2 Bft) 100,00 %
02.11.2022 20:42 10,4 C 9,4 C 6,1 C 80 % 1019,6 hPa 0,0 l/m 0 min 0 min 0 W/m 6,4 km/h (2 Bft) 100,00 %
02.11.2022 20:44 10,4 C 9,4 C 6,1 C 80 % 1019,6 hPa 0,0 l/m 0 min 0 min 0 W/m 6,4 km/h (2 Bft) 100,00 %
02.11.2022 20:46 10,4 C 9,4 C 6,1 C 81 % 1019,5 hPa 0,0 l/m 0 min 0 min 0 W/m 6,4 km/h (2 Bft) 100,00 %
02.11.2022 20:48 10,3 C 9,4 C 6,1 C 81 % 1019,5 hPa 0,0 l/m 0 min 0 min 0 W/m 6,4 km/h (2 Bft) 100,00 %
02.11.2022 20:50 10,3 C 9,4 C 6,1 C 81 % 1019,4 hPa 0,0 l/m 0 min 0 min 0 W/m 6,4 km/h (2 Bft) 97,87 %
02.11.2022 20:52 10,3 C 9,4 C 6,1 C 81 % 1019,4 hPa 0,0 l/m 0 min 0 min 0 W/m 12,9 km/h (3 Bft) 95,65 %
02.11.2022 20:54 10,3 C 9,4 C 6,1 C 81 % 1019,4 hPa 0,0 l/m 0 min 0 min 0 W/m 6,4 km/h (2 Bft) 97,87 %
02.11.2022 20:56 10,2 C 9,4 C 6,1 C 81 % 1019,4 hPa 0,0 l/m 0 min 0 min 0 W/m 6,4 km/h (2 Bft) 97,87 %
02.11.2022 20:58 10,2 C 9,4 C 6,1 C 81 % 1019,3 hPa 0,0 l/m 0 min 0 min 0 W/m 6,4 km/h (2 Bft) 95,74 %
02.11.2022 21:00 10,2 C 9,4 C 6,1 C 81 % 1019,4 hPa 0,0 l/m 0 min 0 min 0 W/m 16,1 km/h (3 Bft) 97,87 %
02.11.2022 21:02 10,2 C 9,4 C 6,1 C 81 % 1019,3 hPa 0,0 l/m 0 min 0 min 0 W/m 12,9 km/h (3 Bft) 97,87 %
02.11.2022 21:04 10,2 C 9,4 C 6,1 C 82 % 1019,3 hPa 0,0 l/m 0 min 0 min 0 W/m 6,4 km/h (2 Bft) 95,65 %
02.11.2022 21:06 10,2 C 9,4 C 6,1 C 82 % 1019,3 hPa 0,0 l/m 0 min 0 min 0 W/m 6,4 km/h (2 Bft) 95,74 %
02.11.2022 21:08 10,2 C 9,4 C 6,1 C 82 % 1019,2 hPa 0,0 l/m 0 min 0 min 0 W/m 6,4 km/h (2 Bft) 95,74 %
02.11.2022 21:10 10,1 C 9,4 C 6,1 C 82 % 1019,2 hPa 0,0 l/m 0 min 0 min 0 W/m 12,9 km/h (3 Bft) 95,74 %
02.11.2022 21:12 10,1 C 9,4 C 6,1 C 82 % 1019,2 hPa 0,0 l/m 0 min 0 min 0 W/m 6,4 km/h (2 Bft) 95,74 %
02.11.2022 21:14 10,1 C 9,4 C 6,1 C 82 % 1019,2 hPa 0,0 l/m 0 min 0 min 0 W/m 6,4 km/h (2 Bft) 95,74 %
02.11.2022 21:16 10,1 C 9,4 C 6,1 C 82 % 1019,1 hPa 0,0 l/m 0 min 0 min 0 W/m 12,9 km/h (3 Bft) 91,30 %
02.11.2022 21:18 10,1 C 9,4 C 6,1 C 82 % 1019,1 hPa 0,0 l/m 0 min 0 min 0 W/m 6,4 km/h (2 Bft) 95,74 %
02.11.2022 21:20 10,1 C 9,4 C 6,1 C 82 % 1019,1 hPa 0,0 l/m 0 min 0 min 0 W/m 12,9 km/h (3 Bft) 93,62 %
02.11.2022 21:22 10,1 C 9,4 C 6,1 C 82 % 1019,0 hPa 0,0 l/m 0 min 0 min 0 W/m 6,4 km/h (2 Bft) 93,62 %
02.11.2022 21:24 10,1 C 9,4 C 6,1 C 82 % 1019,0 hPa 0,0 l/m 0 min 0 min 0 W/m 6,4 km/h (2 Bft) 93,62 %
02.11.2022 21:26 10,1 C 8,9 C 6,1 C 82 % 1019,0 hPa 0,0 l/m 0 min 0 min 0 W/m 12,9 km/h (3 Bft) 95,74 %
02.11.2022 21:28 10,0 C 8,9 C 6,1 C 82 % 1018,9 hPa 0,0 l/m 0 min 0 min 0 W/m 12,9 km/h (3 Bft) 95,65 %
02.11.2022 21:30 10,0 C 8,9 C 6,1 C 82 % 1018,9 hPa 0,0 l/m 0 min 0 min 0 W/m 6,4 km/h (2 Bft) 95,74 %
02.11.2022 21:32 10,0 C 8,9 C 6,1 C 82 % 1018,9 hPa 0,0 l/m 0 min 0 min 0 W/m 12,9 km/h (3 Bft) 95,74 %
02.11.2022 21:34 9,9 C 8,9 C 5,6 C 82 % 1018,9 hPa 0,0 l/m 0 min 0 min 0 W/m 12,9 km/h (3 Bft) 95,74 %
02.11.2022 21:36 9,9 C 8,9 C 5,6 C 83 % 1018,9 hPa 0,0 l/m 0 min 0 min 0 W/m 12,9 km/h (3 Bft) 97,87 %
02.11.2022 21:38 9,9 C 8,9 C 5,6 C 83 % 1018,8 hPa 0,0 l/m 0 min 0 min 0 W/m 12,9 km/h (3 Bft) 97,87 %
02.11.2022 21:40 9,9 C 8,9 C 5,6 C 83 % 1018,8 hPa 0,0 l/m 0 min 0 min 0 W/m 6,4 km/h (2 Bft) 97,83 %
02.11.2022 21:42 9,9 C 8,9 C 5,6 C 83 % 1018,9 hPa 0,0 l/m 0 min 0 min 0 W/m 12,9 km/h (3 Bft) 97,87 %
02.11.2022 21:44 9,9 C 8,9 C 5,6 C 83 % 1018,8 hPa 0,0 l/m 0 min 0 min 0 W/m 6,4 km/h (2 Bft) 97,87 %
02.11.2022 21:46 9,9 C 8,9 C 5,6 C 83 % 1018,8 hPa 0,0 l/m 0 min 0 min 0 W/m 19,3 km/h (3 Bft) 100,00 %
02.11.2022 21:48 9,8 C 8,9 C 5,6 C 83 % 1018,8 hPa 0,0 l/m 0 min 0 min 0 W/m 6,4 km/h (2 Bft) 100,00 %
02.11.2022 21:50 9,8 C 8,9 C 5,6 C 83 % 1018,8 hPa 0,0 l/m 0 min 0 min 0 W/m 12,9 km/h (3 Bft) 97,87 %
02.11.2022 21:52 9,8 C 8,9 C 5,6 C 83 % 1018,7 hPa 0,0 l/m 0 min 0 min 0 W/m 16,1 km/h (3 Bft) 100,00 %
02.11.2022 21:54 9,8 C 8,9 C 5,6 C 83 % 1018,7 hPa 0,0 l/m 0 min 0 min 0 W/m 16,1 km/h (3 Bft) 100,00 %
02.11.2022 21:56 9,8 C 8,9 C 5,6 C 83 % 1018,7 hPa 0,0 l/m 0 min 0 min 0 W/m 12,9 km/h (3 Bft) 100,00 %
02.11.2022 21:58 9,8 C 8,9 C 5,6 C 83 % 1018,7 hPa 0,0 l/m 0 min 0 min 0 W/m 3,2 km/h (1 Bft) 95,74 %
02.11.2022 22:00 9,8 C 8,9 C 5,6 C 83 % 1018,7 hPa 0,0 l/m 0 min 0 min 0 W/m 6,4 km/h (2 Bft) 97,14 %
02.11.2022 22:02 9,8 C 8,9 C 5,6 C 83 % 1018,7 hPa 0,0 l/m 0 min 0 min 0 W/m 16,1 km/h (3 Bft) 94,92 %
02.11.2022 22:04 9,8 C 8,9 C 5,6 C 84 % 1018,6 hPa 0,0 l/m 0 min 0 min 0 W/m 12,9 km/h (3 Bft) 100,00 %
02.11.2022 22:06 9,8 C 8,9 C 5,6 C 84 % 1018,6 hPa 0,0 l/m 0 min 0 min 0 W/m 6,4 km/h (2 Bft) 100,00 %
02.11.2022 22:08 9,8 C 8,9 C 5,6 C 84 % 1018,5 hPa 0,0 l/m 0 min 0 min 0 W/m 6,4 km/h (2 Bft) 97,87 %
02.11.2022 22:10 9,8 C 8,9 C 5,6 C 84 % 1018,5 hPa 0,0 l/m 0 min 0 min 0 W/m 12,9 km/h (3 Bft) 97,14 %
02.11.2022 22:12 9,8 C 8,9 C 5,6 C 84 % 1018,5 hPa 0,0 l/m 0 min 0 min 0 W/m 16,1 km/h (3 Bft) 95,74 %
02.11.2022 22:14 9,8 C 8,9 C 5,6 C 84 % 1018,5 hPa 0,0 l/m 0 min 0 min 0 W/m 3,2 km/h (1 Bft) 98,31 %
02.11.2022 22:16 9,8 C 8,9 C 5,6 C 84 % 1018,5 hPa 0,0 l/m 0 min 0 min 0 W/m 16,1 km/h (3 Bft) 93,48 %
02.11.2022 22:18 9,8 C 8,9 C 5,6 C 84 % 1018,5 hPa 0,0 l/m 0 min 0 min 0 W/m 12,9 km/h (3 Bft) 97,22 %
02.11.2022 22:20 9,8 C 8,9 C 5,6 C 84 % 1018,5 hPa 0,0 l/m 0 min 0 min 0 W/m 12,9 km/h (3 Bft) 97,83 %
02.11.2022 22:22 9,8 C 8,9 C 5,6 C 84 % 1018,5 hPa 0,0 l/m 0 min 0 min 0 W/m 6,4 km/h (2 Bft) 95,74 %
02.11.2022 22:24 9,8 C 8,9 C 5,6 C 84 % 1018,5 hPa 0,0 l/m 0 min 0 min 0 W/m 12,9 km/h (3 Bft) 97,87 %
02.11.2022 22:26 9,8 C 8,9 C 5,6 C 84 % 1018,5 hPa 0,0 l/m 0 min 0 min 0 W/m 16,1 km/h (3 Bft) 97,87 %
02.11.2022 22:28 9,7 C 8,9 C 5,6 C 84 % 1018,5 hPa 0,0 l/m 0 min 0 min 0 W/m 12,9 km/h (3 Bft) 95,74 %
02.11.2022 22:30 9,8 C 8,9 C 5,6 C 84 % 1018,5 hPa 0,0 l/m 0 min 0 min 0 W/m 12,9 km/h (3 Bft) 97,87 %
02.11.2022 22:32 9,7 C 8,9 C 5,6 C 84 % 1018,4 hPa 0,0 l/m 0 min 0 min 0 W/m 12,9 km/h (3 Bft) 95,65 %
02.11.2022 22:34 9,7 C 8,9 C 5,6 C 84 % 1018,4 hPa 0,0 l/m 0 min 0 min 0 W/m 9,7 km/h (2 Bft) 97,87 %
02.11.2022 22:36 9,8 C 8,9 C 5,6 C 84 % 1018,4 hPa 0,0 l/m 0 min 0 min 0 W/m 12,9 km/h (3 Bft) 91,53 %
02.11.2022 22:38 9,8 C 8,9 C 5,6 C 84 % 1018,4 hPa 0,0 l/m 0 min 0 min 0 W/m 16,1 km/h (3 Bft) 100,00 %
02.11.2022 22:40 9,8 C 8,9 C 5,6 C 84 % 1018,4 hPa 0,0 l/m 0 min 0 min 0 W/m 9,7 km/h (2 Bft) 97,87 %
02.11.2022 22:42 9,8 C 8,9 C 5,6 C 84 % 1018,3 hPa 0,0 l/m 0 min 0 min 0 W/m 19,3 km/h (3 Bft) 95,65 %
02.11.2022 22:44 9,8 C 8,9 C 5,6 C 84 % 1018,3 hPa 0,0 l/m 0 min 0 min 0 W/m 12,9 km/h (3 Bft) 95,74 %
02.11.2022 22:46 9,8 C 8,9 C 5,6 C 84 % 1018,3 hPa 0,0 l/m 0 min 0 min 0 W/m 19,3 km/h (3 Bft) 95,74 %
02.11.2022 22:48 9,8 C 8,9 C 5,6 C 84 % 1018,3 hPa 0,0 l/m 0 min 0 min 0 W/m 12,9 km/h (3 Bft) 97,87 %
02.11.2022 22:50 9,8 C 8,9 C 5,6 C 84 % 1018,2 hPa 0,0 l/m 0 min 0 min 0 W/m 12,9 km/h (3 Bft) 97,87 %
02.11.2022 22:52 9,8 C 8,9 C 5,6 C 84 % 1018,2 hPa 0,0 l/m 0 min 0 min 0 W/m 12,9 km/h (3 Bft) 95,74 %
02.11.2022 22:54 9,8 C 8,9 C 5,6 C 84 % 1018,2 hPa 0,0 l/m 0 min 0 min 0 W/m 12,9 km/h (3 Bft) 97,87 %
02.11.2022 22:56 9,8 C 9,4 C 5,6 C 84 % 1018,2 hPa 0,0 l/m 0 min 0 min 0 W/m 16,1 km/h (3 Bft) 97,83 %
02.11.2022 22:58 9,8 C 9,4 C 6,1 C 84 % 1018,2 hPa 0,0 l/m 0 min 0 min 0 W/m 12,9 km/h (3 Bft) 95,74 %
02.11.2022 23:00 9,8 C 9,4 C 6,1 C 84 % 1018,2 hPa 0,0 l/m 0 min 0 min 0 W/m 16,1 km/h (3 Bft) 97,87 %
02.11.2022 23:02 9,8 C 9,4 C 6,1 C 84 % 1018,2 hPa 0,0 l/m 0 min 0 min 0 W/m 16,1 km/h (3 Bft) 97,87 %
02.11.2022 23:04 9,9 C 9,4 C 6,1 C 84 % 1018,2 hPa 0,0 l/m 0 min 0 min 0 W/m 16,1 km/h (3 Bft) 93,62 %
02.11.2022 23:06 9,9 C 9,4 C 6,1 C 84 % 1018,1 hPa 0,0 l/m 0 min 0 min 0 W/m 16,1 km/h (3 Bft) 98,28 %
02.11.2022 23:08 9,9 C 9,4 C 6,1 C 84 % 1018,0 hPa 0,0 l/m 0 min 0 min 0 W/m 19,3 km/h (3 Bft) 97,14 %
02.11.2022 23:10 9,9 C 9,4 C 6,1 C 84 % 1018,1 hPa 0,0 l/m 0 min 0 min 0 W/m 16,1 km/h (3 Bft) 95,74 %
02.11.2022 23:12 9,9 C 9,4 C 6,1 C 84 % 1018,0 hPa 0,0 l/m 0 min 0 min 0 W/m 19,3 km/h (3 Bft) 97,87 %
02.11.2022 23:14 9,9 C 9,4 C 6,1 C 84 % 1017,9 hPa 0,0 l/m 0 min 0 min 0 W/m 16,1 km/h (3 Bft) 97,87 %
02.11.2022 23:16 10,0 C 9,4 C 6,1 C 84 % 1017,9 hPa 0,0 l/m 0 min 0 min 0 W/m 16,1 km/h (3 Bft) 95,74 %
02.11.2022 23:18 10,0 C 9,4 C 6,1 C 84 % 1018,0 hPa 0,0 l/m 0 min 0 min 0 W/m 16,1 km/h (3 Bft) 97,83 %
02.11.2022 23:20 10,0 C 9,4 C 6,1 C 84 % 1017,9 hPa 0,0 l/m 0 min 0 min 0 W/m 12,9 km/h (3 Bft) 97,87 %
02.11.2022 23:22 10,1 C 9,4 C 6,1 C 84 % 1017,8 hPa 0,0 l/m 0 min 0 min 0 W/m 19,3 km/h (3 Bft) 100,00 %
02.11.2022 23:24 10,1 C 9,4 C 6,1 C 84 % 1017,9 hPa 0,0 l/m 0 min 0 min 0 W/m 16,1 km/h (3 Bft) 97,87 %
02.11.2022 23:26 10,1 C 9,4 C 6,1 C 84 % 1017,8 hPa 0,0 l/m 0 min 0 min 0 W/m 12,9 km/h (3 Bft) 100,00 %
02.11.2022 23:28 10,1 C 9,4 C 6,1 C 84 % 1017,8 hPa 0,0 l/m 0 min 0 min 0 W/m 22,5 km/h (4 Bft) 100,00 %
02.11.2022 23:30 10,1 C 9,4 C 6,1 C 84 % 1017,8 hPa 0,0 l/m 0 min 0 min 0 W/m 16,1 km/h (3 Bft) 100,00 %
02.11.2022 23:32 10,1 C 9,4 C 6,1 C 84 % 1017,8 hPa 0,0 l/m 0 min 0 min 0 W/m 12,9 km/h (3 Bft) 100,00 %
02.11.2022 23:34 10,1 C 9,4 C 6,1 C 84 % 1017,8 hPa 0,0 l/m 0 min 0 min 0 W/m 19,3 km/h (3 Bft) 100,00 %
02.11.2022 23:36 10,2 C 9,4 C 6,1 C 84 % 1017,7 hPa 0,0 l/m 0 min 0 min 0 W/m 12,9 km/h (3 Bft) 97,87 %
02.11.2022 23:38 10,2 C 9,4 C 6,1 C 84 % 1017,7 hPa 0,0 l/m 0 min 0 min 0 W/m 16,1 km/h (3 Bft) 100,00 %
02.11.2022 23:40 10,2 C 9,4 C 6,1 C 84 % 1017,7 hPa 0,0 l/m 0 min 0 min 0 W/m 16,1 km/h (3 Bft) 100,00 %
02.11.2022 23:42 10,2 C 9,4 C 6,1 C 84 % 1017,7 hPa 0,0 l/m 0 min 0 min 0 W/m 16,1 km/h (3 Bft) 100,00 %
02.11.2022 23:44 10,2 C 9,4 C 6,1 C 84 % 1017,6 hPa 0,0 l/m 0 min 0 min 0 W/m 22,5 km/h (4 Bft) 100,00 %
02.11.2022 23:46 10,2 C 9,4 C 6,1 C 83 % 1017,6 hPa 0,0 l/m 0 min 0 min 0 W/m 12,9 km/h (3 Bft) 100,00 %
02.11.2022 23:48 10,2 C 9,4 C 6,1 C 83 % 1017,6 hPa 0,0 l/m 0 min 0 min 0 W/m 16,1 km/h (3 Bft) 100,00 %
02.11.2022 23:50 10,2 C 9,4 C 6,1 C 83 % 1017,6 hPa 0,0 l/m 0 min 0 min 0 W/m 12,9 km/h (3 Bft) 100,00 %
02.11.2022 23:52 10,2 C 9,4 C 6,1 C 83 % 1017,5 hPa 0,0 l/m 0 min 0 min 0 W/m 16,1 km/h (3 Bft) 97,87 %
02.11.2022 23:54 10,3 C 9,4 C 6,1 C 83 % 1017,5 hPa 0,0 l/m 0 min 0 min 0 W/m 16,1 km/h (3 Bft) 100,00 %
02.11.2022 23:56 10,3 C 9,4 C 6,1 C 83 % 1017,5 hPa 0,0 l/m 0 min 0 min 0 W/m 16,1 km/h (3 Bft) 97,87 %
02.11.2022 23:58 10,2 C 9,4 C 6,1 C 83 % 1017,4 hPa 0,0 l/m 0 min 0 min 0 W/m 12,9 km/h (3 Bft) 95,74 %
_ Min-Zeit 22:28 21:26 21:34 15:26 00:48 - - - - 17:44 00:02
Minimum _ 9,7 C 8,9 C 5,6 C 68 % 1016,1 hPa - - - - 0,0 km/h (0 Bft) 15,38 %
_ Max-Zeit 13:38 10:08 13:38 22:04 12:12 00:00 09:32 00:58 12:58 05:18 00:14
Maximum _ 15,3 C 18,3 C 11,1 C 84 % 1022,2 hPa 0,0 l/m 2 min 2 min 445 W/m 48,3 km/h
S (6 Bft)
100,00 %
Durchschnitt _ 12,8 C 12,2 C 8,4 C 78 % 1019,4 hPa #0,0 l/m #1:52 h #4 min. 103 W/m 16,9 km/h (3 Bft) 95,22 %
© 2022 W. Hausmann